GEFSNGP_500_meanwind_138.txt.gz
Wind_Speed
9 9 10 10 10 10 10 9 9 10 10 9 9 9 9 9 9 11 12 13 13 14 14 15 16 17 18 19 21 21 22 23 24 25 26 28 29 30 30 31 30 31 31 30
10 10 10 11 11 11 11 11 10 10 9 9 10 10 10 10 11 12 13 14 15 15 16 17 18 19 20 22 23 24 24 25 26 27 29 30 30 32 32 32 32 32 32 32
12 12 12 11 11 12 11 11 11 10 10 10 11 11 11 12 13 13 14 15 16 17 18 19 20 22 23 24 25 26 27 28 29 30 31 32 32 33 34 34 34 34 34 33
14 14 14 11 13 13 12 12 12 11 11 11 12 12 13 14 15 16 17 18 19 20 21 22 23 25 26 26 27 28 29 30 32 33 34 34 35 35 36 35 35 35 35 35
16 16 14 13 13 14 14 13 13 12 12 13 13 14 14 16 17 18 19 20 21 22 23 25 26 27 28 29 29 30 31 32 33 34 35 36 37 37 37 36 36 36 37 38
17 17 15 13 14 15 15 14 13 14 14 15 15 16 17 18 19 20 21 22 24 25 26 27 28 29 30 31 32 32 33 34 35 36 37 38 38 38 37 38 38 39 40 41
18 18 16 15 16 16 17 16 16 17 17 17 18 19 19 21 22 23 24 25 26 27 28 29 30 30 31 33 34 35 35 36 37 38 39 39 39 39 39 40 41 42 42 42
20 20 18 18 18 19 19 19 19 19 20 20 21 21 22 23 24 25 26 28 29 29 30 31 32 33 33 34 35 36 37 38 39 40 41 41 41 41 41 42 43 43 43 43
22 22 21 21 21 21 21 22 22 23 23 24 24 25 26 26 27 28 29 30 31 31 32 33 34 35 36 36 37 38 39 40 41 41 42 43 43 43 43 43 44 44 44 44
25 25 24 25 25 25 25 25 26 26 27 27 28 29 29 30 30 31 31 32 33 34 35 35 36 37 38 38 39 40 42 42 43 43 44 44 45 45 45 45 45 46 46 46
28 27 28 28 28 29 29 29 30 30 31 31 31 32 32 33 33 34 34 35 36 36 37 38 39 39 40 41 41 42 43 43 44 45 45 46 47 47 47 47 47 48 48 47
30 30 31 31 31 31 31 32 32 33 33 34 34 34 35 35 35 35 36 37 38 39 40 41 41 42 42 42 43 44 44 45 46 47 47 48 48 48 49 49 49 50 50 49
32 32 33 33 33 33 34 34 35 35 35 35 35 36 36 37 37 38 39 39 40 41 42 42 43 43 44 44 45 46 47 47 48 49 49 50 50 50 50 50 50 50 50 50
34 34 34 35 35 36 36 36 36 36 37 37 37 37 38 38 39 40 40 41 42 42 43 44 44 45 46 46 47 47 48 49 50 50 51 51 51 51 51 50 50 50 51 51
35 35 35 35 35 35 36 37 37 37 38 38 39 39 40 41 41 42 42 43 43 43 44 44 45 45 46 47 47 48 49 50 51 51 51 52 52 52 52 52 52 52 51 51
35 35 35 36 36 37 37 38 38 38 38 39 40 41 42 42 43 43 44 44 44 44 45 45 46 46 47 48 49 50 51 51 52 52 52 52 53 53 53 53 53 52 52 52
35 35 36 37 37 38 38 39 39 40 40 41 41 43 43 44 44 45 45 46 46 46 46 46 47 48 49 50 50 51 52 52 53 53 53 54 54 55 55 54 53 53 53 53
36 37 37 38 38 39 39 40 41 41 42 42 43 44 44 45 46 46 47 47 47 47 48 48 49 50 51 52 52 53 54 54 54 55 55 55 56 56 55 55 54 54 53 52
38 39 39 39 40 40 41 41 42 42 43 44 44 45 46 47 47 48 48 48 48 49 49 50 51 51 52 53 54 55 55 56 56 56 57 57 57 56 56 56 55 54 53 52
40 40 41 41 42 42 42 42 43 43 44 45 45 46 47 47 48 48 48 49 49 50 51 52 53 53 54 55 56 56 57 57 58 58 58 58 57 57 57 56 55 54 52 51
42 42 42 42 43 43 44 44 45 45 46 46 47 47 48 48 49 50 50 51 51 52 53 54 55 55 55 56 57 58 58 59 60 60 59 58 57 57 56 56 54 53 52 50
44 44 44 44 44 45 45 46 46 47 47 48 48 49 49 50 50 51 52 53 53 54 55 55 56 56 57 58 58 59 60 60 61 60 58 58 57 56 56 55 53 52 51 49
45 46 46 47 47 47 47 47 48 49 49 49 50 51 52 53 53 53 53 54 55 55 56 56 57 58 59 59 60 60 60 60 60 59 58 57 56 55 55 54 52 51 50 48
47 47 47 47 47 48 48 48 49 50 51 52 53 53 54 55 55 55 55 55 56 56 57 57 58 59 59 59 60 60 59 59 59 58 57 56 55 54 54 53 51 50 48 46
49 49 49 50 50 50 50 51 51 52 52 53 54 55 55 56 56 56 56 56 56 57 57 58 58 58 58 59 59 59 59 59 58 57 56 55 54 53 52 51 48 47 45 43
51 51 51 52 52 53 54 54 54 54 54 54 54 55 55 55 56 56 56 56 56 57 57 57 57 57 58 58 58 58 57 56 55 55 54 53 52 51 49 48 46 44 42 41
54 54 55 55 55 55 56 56 56 56 56 56 56 56 55 55 55 55 55 55 56 56 56 57 57 57 57 57 56 55 55 55 54 53 53 51 49 48 46 46 45 43 41 39

GEFSNGP_500_meanwind_144.txt.gz
Wind_Speed
11 12 12 11 11 11 11 11 11 11 11 11 12 13 13 13 13 13 13 13 13 13 14 14 14 15 16 17 18 19 20 21 23 24 24 25 26 27 27 28 30 30 31 32
12 13 14 13 12 12 12 12 12 12 12 13 14 14 14 14 14 14 14 14 14 15 15 16 16 17 18 19 20 21 22 24 25 25 26 27 28 29 29 30 31 32 33 33
13 14 14 13 13 14 14 13 13 13 13 14 15 15 15 15 15 15 15 15 15 16 17 17 18 19 20 21 22 24 25 26 26 27 28 29 29 30 31 32 32 33 34 35
14 15 15 13 14 15 15 15 15 15 15 16 16 16 16 16 16 16 16 16 16 17 18 19 20 21 22 24 25 26 27 28 28 29 29 30 31 32 32 33 34 34 35 36
16 16 15 14 15 16 17 16 16 17 17 17 16 16 16 17 16 17 18 18 18 19 20 22 23 24 25 26 27 28 29 30 30 31 31 32 32 33 34 34 35 36 36 37
18 18 17 15 17 18 17 17 17 18 18 17 17 17 17 18 18 19 19 20 21 21 22 24 25 25 27 28 29 30 30 31 31 32 33 33 34 35 36 37 37 38 38 38
19 19 17 17 18 18 18 17 18 19 19 19 19 19 19 19 20 21 21 22 23 24 25 26 27 28 29 30 31 31 32 33 33 34 35 35 36 37 38 39 39 40 40 40
20 20 18 19 19 20 19 20 20 20 20 20 20 21 21 22 23 23 24 25 25 26 27 28 29 29 30 32 32 33 34 34 35 36 36 37 38 39 40 40 40 41 41 42
22 21 21 21 22 22 22 22 22 23 23 23 23 23 24 24 25 26 27 27 28 29 29 30 31 32 33 34 34 35 36 36 37 38 39 40 40 41 41 42 42 42 43 43
24 23 24 24 24 25 25 25 25 25 25 26 26 26 26 27 27 28 30 30 31 31 32 32 33 34 35 35 36 37 38 39 39 40 41 42 43 43 44 44 44 44 45 45
26 26 27 27 27 28 28 28 28 29 29 29 29 29 30 30 31 31 32 33 33 33 34 35 35 36 37 38 39 39 40 41 42 43 44 44 45 45 46 46 46 46 46 46
29 29 30 29 30 30 31 31 31 32 32 32 32 32 32 33 33 34 34 35 35 35 36 37 38 38 39 40 40 41 42 43 43 44 45 45 46 46 47 48 48 48 48 48
32 32 32 32 32 33 33 33 33 33 33 34 34 35 35 35 36 36 36 37 37 38 38 39 40 41 42 42 42 43 44 44 45 45 46 46 47 47 48 48 49 49 49 50
34 34 33 33 34 34 34 34 35 35 35 35 36 37 37 37 38 38 39 39 40 41 41 42 42 43 44 44 45 45 45 46 46 46 47 47 48 49 49 50 50 50 51 51
35 35 35 35 35 35 35 35 36 36 37 37 38 38 38 39 39 39 40 41 42 43 43 44 44 45 46 46 46 46 46 47 47 47 48 48 49 51 51 52 52 52 52 52
35 36 36 36 36 36 36 36 36 37 38 39 39 39 40 40 40 41 42 43 43 44 45 45 46 46 47 47 47 47 48 48 48 49 49 50 52 52 53 53 53 53 53 53
35 36 37 37 37 37 37 37 38 38 39 39 40 40 41 41 42 42 43 44 45 46 47 47 47 47 48 48 48 48 49 50 50 51 52 53 53 54 55 55 54 54 54 55
36 36 37 38 38 39 39 39 40 40 40 41 41 42 43 43 44 45 46 46 47 47 48 48 48 48 49 49 50 50 51 51 52 53 54 54 55 56 56 56 56 56 55 56
38 38 39 39 39 40 40 40 41 42 42 43 43 44 45 45 46 46 47 48 49 49 49 49 50 50 51 51 51 51 52 53 54 54 55 56 56 57 57 56 56 57 57 57
39 39 39 40 41 41 42 42 43 43 44 45 45 46 46 47 48 48 49 49 50 50 51 51 52 52 52 52 52 53 53 54 55 55 56 57 58 58 58 58 58 58 58 57
41 41 41 42 43 43 44 44 45 45 46 47 47 48 49 49 50 50 50 50 51 51 52 52 53 53 53 54 54 55 55 56 56 57 58 58 59 59 59 59 59 58 58 57
42 43 43 43 44 44 45 46 46 47 47 48 48 49 50 51 51 52 52 53 53 53 54 54 54 55 55 56 56 56 57 57 57 57 58 59 59 59 58 58 58 57 57 56
43 43 44 44 45 45 46 47 48 48 49 49 50 50 51 52 52 53 54 54 55 55 55 55 56 56 57 57 57 58 58 58 59 59 59 59 59 58 58 57 57 57 55 54
45 45 46 46 47 47 48 49 49 50 50 50 51 51 52 53 53 54 54 55 56 56 56 56 57 57 57 58 58 59 59 59 59 59 58 58 58 58 57 56 56 55 54 54
46 46 47 48 48 49 49 50 51 51 52 52 53 53 54 55 55 55 56 56 56 57 57 57 58 58 59 59 59 59 59 59 59 58 58 57 57 57 56 56 55 55 55 54
48 48 48 49 50 51 52 52 53 53 54 54 55 55 56 56 56 57 57 57 58 58 58 58 58 59 59 59 59 58 58 58 58 57 57 57 57 56 56 55 55 54 53 52
50 50 51 51 51 52 53 54 55 55 55 56 56 56 57 57 57 57 57 57 57 56 56 57 57 57 56 56 56 56 56 56 55 55 55 55 55 55 55 54 53 52 51 50

GEFSNGP_500_meanwind_150.txt.gz
Wind_Speed
11 11 11 10 11 11 11 11 11 11 12 12 13 14 14 14 14 14 14 14 14 14 14 14 15 15 16 16 17 17 18 19 20 20 20 21 21 22 22 23 23 24 24 25
12 13 13 12 12 12 12 12 13 13 13 14 15 15 15 15 15 15 15 15 15 15 16 16 16 17 17 18 18 19 20 20 21 21 22 22 23 23 23 24 24 25 26 27
14 15 15 13 13 14 14 14 14 14 14 15 16 16 16 16 16 16 16 16 16 17 17 17 18 18 19 19 20 21 21 22 22 23 23 24 24 24 25 25 27 27 28 28
15 16 16 14 15 16 15 15 15 15 15 15 15 16 16 16 16 16 17 17 17 18 18 19 19 20 20 21 21 22 22 23 24 24 25 25 26 26 27 27 28 28 29 29
16 16 15 15 16 16 16 16 16 16 16 16 15 15 16 16 17 17 17 18 18 19 19 20 20 21 21 22 22 23 24 24 25 26 26 27 27 28 28 28 29 29 30 31
17 17 16 16 17 17 17 16 16 16 17 17 16 17 16 17 17 18 18 19 19 20 20 21 21 22 23 23 23 24 25 26 26 27 28 28 29 29 30 30 31 31 32 32
18 18 17 17 17 17 17 17 17 17 18 17 17 17 17 18 18 19 19 20 20 21 21 22 23 24 25 25 26 26 27 27 28 29 29 30 30 31 32 32 33 33 34 34
19 20 18 19 18 19 19 19 18 18 19 19 18 18 18 19 20 21 21 21 22 23 23 24 25 26 27 27 28 28 28 29 30 31 31 32 33 34 34 35 35 36 36 36
21 21 21 21 21 21 21 20 20 20 20 20 20 20 20 21 21 22 23 24 24 25 25 26 26 27 28 29 29 29 30 31 32 32 33 34 35 36 37 37 38 38 38 38
23 23 23 23 23 22 22 22 22 21 21 22 22 22 22 23 23 24 25 26 26 27 27 28 29 29 30 30 31 31 32 33 34 35 35 36 37 38 39 39 40 40 40 40
25 25 25 25 25 24 24 24 24 24 24 24 25 25 25 25 26 26 27 28 28 28 29 29 30 31 31 32 33 33 34 35 36 36 37 38 39 40 40 41 42 42 42 42
27 27 27 27 27 27 27 27 27 27 27 28 28 28 28 28 29 29 29 29 29 30 31 31 32 33 33 34 35 36 37 37 38 39 39 40 41 41 42 42 43 43 44 45
28 28 28 28 28 29 29 29 30 30 30 30 30 30 30 30 30 31 31 31 31 32 33 33 34 35 36 36 37 38 39 40 40 41 41 42 42 43 43 43 44 45 45 47
30 30 30 30 30 30 30 30 31 31 32 32 32 32 32 32 32 32 32 33 33 34 35 35 36 37 38 39 40 41 41 42 42 42 43 44 44 45 45 45 46 46 47 48
31 32 31 32 32 32 32 32 32 32 32 33 34 34 34 34 34 34 35 35 36 36 37 38 38 39 40 41 42 43 43 44 44 45 45 46 46 47 47 47 48 49 49 50
33 33 33 33 33 33 33 33 33 33 33 33 34 34 35 35 35 36 37 37 38 38 39 40 40 41 42 43 44 45 45 46 46 47 47 48 48 49 49 50 51 51 52 52
34 34 34 34 35 34 34 34 34 34 34 35 35 36 36 37 37 38 39 39 40 41 42 42 43 44 45 46 46 47 47 48 48 49 49 50 50 51 52 53 53 54 54 54
34 35 35 36 36 36 36 36 36 36 36 37 37 37 38 39 39 40 41 42 42 43 44 45 46 46 47 47 48 48 49 50 50 51 51 52 53 54 54 55 55 55 55 55
35 35 36 36 36 37 37 37 37 37 38 39 39 40 41 41 41 42 43 44 45 46 46 47 48 48 49 50 50 51 51 52 52 53 54 54 55 56 56 56 56 56 56 56
35 36 36 36 36 37 37 37 38 39 39 40 41 41 42 42 43 44 45 46 47 48 48 49 49 50 50 51 52 53 53 54 54 54 55 56 56 56 57 57 56 56 56 55
36 36 37 37 37 38 38 39 39 40 40 41 42 43 44 44 45 46 47 47 47 48 49 49 50 51 51 52 53 54 54 55 55 56 56 57 57 57 57 57 57 56 56 55
36 37 37 38 39 39 39 40 40 41 42 43 43 44 45 45 46 47 47 48 49 50 50 51 52 52 53 54 55 55 56 56 57 57 58 58 58 58 58 58 57 57 56 56
38 38 38 39 39 39 40 41 41 42 43 43 44 45 46 47 48 48 49 50 51 51 52 53 54 55 55 56 56 57 57 57 58 58 58 58 58 58 58 57 57 56 56 55
40 40 40 40 40 40 40 41 42 43 44 45 46 47 48 49 50 51 52 52 53 54 54 55 55 56 57 57 58 58 58 58 58 58 58 58 58 58 57 57 57 56 56 55
41 41 41 41 42 42 43 43 43 44 45 46 47 48 49 50 51 52 52 53 54 55 56 56 57 57 57 58 58 58 58 57 57 57 57 56 56 56 55 55 55 54 53 52
41 41 42 42 43 43 44 44 45 45 46 47 48 48 49 50 51 52 52 53 54 54 55 55 56 56 56 56 57 56 56 55 55 54 54 54 53 53 53 53 53 53 52 51
42 42 42 43 43 44 44 45 46 46 47 47 48 49 50 51 51 52 53 53 54 54 54 54 54 54 54 54 54 54 53 53 52 52 51 51 50 50 51 51 51 51 50 49

GEFSNGP_500_meanwind_156.txt.gz
Wind_Speed
8 9 10 11 11 11 12 12 12 12 13 13 15 16 15 14 13 14 14 13 14 14 14 15 15 15 16 16 16 17 17 18 18 19 20 20 21 21 21 21 21 21 21 22
9 10 11 11 12 13 13 13 14 15 15 15 16 17 16 16 15 15 16 16 15 15 15 16 16 16 16 16 17 18 18 19 20 21 21 22 22 22 23 23 23 23 23 23
10 10 12 12 12 13 14 15 16 17 16 17 17 17 17 16 17 17 17 18 17 16 16 17 17 17 18 18 19 19 20 20 21 22 22 23 23 24 24 24 24 24 24 25
13 12 13 13 15 15 16 16 17 17 17 18 18 18 18 18 17 17 17 17 17 17 17 18 18 19 19 20 20 20 21 21 22 23 23 24 24 24 24 24 25 25 26 26
16 16 15 15 16 16 17 16 17 17 18 19 19 19 19 19 18 18 18 18 18 18 19 19 20 20 20 21 21 22 22 23 23 24 24 24 25 25 26 26 27 27 28 28
18 18 17 18 18 18 17 18 17 18 18 19 20 20 20 19 19 19 19 19 19 19 20 20 21 21 21 22 22 23 24 24 25 25 25 25 26 27 28 28 28 29 29 30
19 19 20 20 20 18 19 19 19 19 19 19 20 21 20 20 20 20 20 20 20 21 21 21 22 22 23 23 23 24 24 25 26 26 26 27 28 29 29 30 30 30 31 32
20 21 22 22 21 21 21 21 21 20 20 20 21 22 21 21 22 21 21 21 22 22 22 23 23 23 24 24 25 25 25 26 27 28 28 29 30 31 31 32 32 33 33 34
23 24 24 23 23 23 23 23 23 22 22 22 22 22 23 23 23 23 23 23 23 23 24 24 24 25 25 25 26 27 28 28 29 30 30 31 32 32 33 34 34 35 36 36
24 25 26 25 25 25 25 25 25 24 24 24 24 24 24 25 25 25 25 25 25 25 25 26 26 27 27 27 28 29 30 30 31 32 32 33 34 35 35 36 37 37 38 39
26 26 27 27 26 26 27 27 27 27 27 27 26 26 26 27 27 27 27 27 27 27 28 28 28 29 29 30 31 31 32 32 33 34 34 35 36 37 37 38 39 40 40 41
28 28 29 28 27 27 28 28 29 29 28 28 28 28 28 28 28 28 29 29 29 29 30 30 30 31 31 32 33 33 34 34 35 36 37 38 38 39 39 40 41 42 43 44
30 30 30 30 29 29 29 29 30 30 30 30 30 30 30 30 30 30 30 31 30 31 31 32 32 32 33 33 34 35 36 37 37 38 39 40 41 41 42 42 43 44 45 46
31 31 31 31 31 31 31 31 31 31 31 31 31 31 31 32 32 31 32 32 32 33 33 34 34 34 35 36 36 37 38 39 40 41 42 42 43 44 44 45 46 46 47 48
32 33 33 33 33 32 32 32 32 32 32 32 32 33 33 33 33 33 34 34 35 35 35 36 36 37 38 38 39 40 41 42 43 44 45 46 46 47 47 48 49 49 50 50
34 34 34 34 34 34 34 34 34 34 34 34 34 34 34 34 35 35 36 36 37 37 37 38 38 39 40 41 42 43 44 45 46 47 48 49 49 50 50 51 51 52 52 52
35 35 35 35 35 35 35 36 36 36 36 36 36 36 36 36 37 37 38 39 39 39 39 40 41 42 42 43 45 45 46 47 48 49 49 50 51 51 52 52 52 52 53 53
36 37 37 37 37 37 37 37 37 37 37 37 37 37 38 38 39 39 39 39 40 40 41 41 42 43 44 45 46 47 48 49 49 50 51 51 52 52 52 53 53 54 55 55
38 38 37 38 38 37 37 37 38 38 38 38 38 38 39 38 39 39 40 40 41 41 42 43 44 45 46 47 48 49 50 51 51 52 53 53 54 54 55 55 56 56 56 56
37 37 37 37 38 38 38 38 38 38 38 39 39 40 40 40 41 41 42 42 42 43 44 45 46 47 48 49 50 51 51 52 53 53 54 55 55 56 56 57 57 57 57 57
36 37 37 37 37 38 38 38 38 38 39 40 40 41 41 42 43 43 44 45 45 45 46 47 48 49 50 51 52 52 53 53 54 55 55 56 56 57 57 57 57 57 58 57
36 36 37 37 37 38 38 39 39 40 40 41 42 42 43 44 44 45 46 47 48 48 49 49 50 50 51 52 53 54 54 55 56 57 57 57 58 58 58 58 58 58 58 58
36 37 37 37 38 39 39 40 40 41 42 42 43 43 44 45 46 47 47 48 49 50 51 52 52 53 54 55 55 56 56 56 57 57 58 58 58 58 58 58 58 58 57 57
37 37 38 38 39 40 41 41 42 42 42 42 43 43 44 45 45 46 47 48 49 50 51 53 54 55 56 56 56 56 56 56 57 57 57 57 57 56 56 56 55 55 55 55
38 39 39 40 40 41 41 41 41 41 41 41 42 42 43 44 45 46 47 48 49 50 51 53 54 54 55 55 55 55 54 54 54 54 54 54 54 54 54 54 54 54 53 53
40 40 41 41 41 41 41 41 41 41 41 42 42 43 44 45 46 47 47 49 50 50 51 52 52 52 52 52 52 52 52 52 52 53 53 53 53 53 52 52 52 52 52 51
41 41 41 41 41 41 41 42 42 42 43 43 43 44 44 45 46 47 48 48 49 49 49 50 50 50 50 51 51 51 52 52 52 51 51 51 51 50 49 49 49 49 48 48

GEFSNGP_500_meanwind_162.txt.gz
Wind_Speed
6 7 8 9 9 10 10 11 11 11 11 11 12 12 12 11 11 11 11 12 12 13 14 14 15 15 15 15 15 15 15 16 16 17 17 18 18 18 18 19 19 19 19 19
7 8 9 9 9 10 11 12 12 12 11 12 13 13 13 13 13 12 12 12 13 14 14 15 15 15 15 16 16 16 16 17 17 18 18 18 19 19 19 20 20 21 21 21
10 10 10 10 10 11 12 12 13 12 12 13 14 14 14 14 14 13 13 13 13 14 15 15 16 16 16 17 17 17 18 18 19 19 19 19 19 20 21 21 22 22 22 23
13 13 13 11 12 13 13 13 13 14 13 14 14 15 15 16 15 14 14 14 15 16 16 17 17 18 18 18 19 19 19 20 20 20 20 20 20 21 22 22 23 24 25 25
15 15 14 13 14 15 15 15 15 15 15 15 15 16 17 17 17 16 16 16 17 17 17 18 18 19 19 19 20 21 21 21 21 21 21 21 22 23 23 24 25 26 26 27
16 16 15 14 15 15 16 16 16 16 16 16 17 17 17 18 18 18 18 18 18 19 19 19 19 19 20 21 21 22 22 22 22 23 23 23 24 25 25 26 27 27 28 28
18 18 17 16 16 16 16 16 17 17 17 17 18 19 19 19 19 19 19 19 19 19 19 20 20 20 21 21 22 23 23 24 24 24 25 25 26 27 27 28 29 29 30 30
20 20 18 18 18 18 17 18 19 19 19 19 20 20 20 21 21 21 21 21 21 21 21 21 21 21 22 23 23 24 24 24 24 25 26 27 28 29 29 30 30 31 32 32
22 21 19 19 20 19 20 20 21 21 21 21 21 21 22 22 22 23 23 23 23 23 23 23 23 23 24 24 25 26 26 26 26 27 28 29 29 30 31 32 32 33 33 34
23 22 21 21 21 21 21 21 22 23 23 23 23 23 23 23 24 24 24 24 24 25 25 25 25 26 26 27 27 28 28 28 28 29 30 31 32 32 33 34 35 35 36 37
25 24 24 23 23 23 23 23 24 24 24 24 24 25 25 25 25 25 25 26 26 26 27 27 28 28 28 29 30 30 30 30 31 31 32 33 34 34 35 36 37 38 39 39
26 25 26 26 25 25 25 25 26 25 25 25 25 25 26 26 26 27 27 27 27 27 27 28 29 29 30 30 31 31 32 32 33 33 34 35 35 36 37 38 39 40 41 41
27 27 27 27 27 27 26 26 26 26 26 26 26 26 27 27 28 28 28 28 29 29 29 29 30 31 31 32 33 33 34 34 35 36 36 37 38 38 39 40 41 42 43 44
29 30 30 29 29 28 28 28 28 27 27 27 28 28 28 28 28 29 29 29 30 30 30 31 32 32 33 34 34 35 36 36 37 38 39 40 41 41 42 43 44 44 46 47
31 32 31 31 30 30 30 30 30 29 29 29 30 30 30 30 30 30 30 31 31 32 32 32 33 34 35 35 36 37 38 39 40 41 42 42 43 44 45 45 46 47 48 49
32 32 32 31 31 31 31 31 31 31 31 31 32 32 32 32 32 32 32 33 33 33 34 35 36 36 37 38 39 39 40 41 42 43 43 44 45 46 47 47 48 49 50 51
33 33 32 33 33 33 33 32 32 33 32 32 33 33 34 34 34 34 35 35 35 36 37 37 38 39 40 41 41 41 42 44 44 45 45 46 47 48 49 50 51 51 52 53
33 33 34 34 34 34 34 34 33 33 33 33 34 34 34 35 35 36 36 37 37 38 39 40 40 41 41 42 42 43 44 45 46 46 47 48 49 50 51 52 52 53 54 54
34 34 35 35 35 35 35 35 35 34 34 34 34 35 35 35 36 37 37 38 38 39 40 41 42 42 42 43 44 45 45 46 47 48 49 50 51 52 53 53 54 55 55 56
35 35 35 36 36 36 36 36 35 35 34 34 35 35 35 36 36 37 37 38 39 40 41 42 42 43 43 44 45 46 47 47 48 49 51 52 53 53 54 54 55 56 56 57
35 35 35 35 35 35 35 35 35 35 34 35 35 35 36 36 37 37 37 38 39 41 42 42 43 43 44 45 46 47 47 48 49 50 51 52 53 54 54 55 55 56 56 56
33 34 33 33 33 34 34 34 34 34 35 35 36 37 37 38 38 38 39 40 41 42 43 43 44 45 45 46 47 48 49 49 50 50 51 52 53 53 53 54 55 56 56 56
32 33 33 33 33 33 33 33 34 34 35 35 36 37 38 38 39 40 40 41 42 42 43 43 44 45 46 46 47 48 49 49 50 51 51 52 53 53 53 54 55 55 55 55
33 33 33 34 34 34 34 34 34 35 35 36 37 37 38 39 39 40 41 41 42 42 43 43 44 45 45 46 47 48 49 50 50 51 52 53 53 53 54 54 54 53 54 54
34 33 33 34 34 35 35 35 36 36 36 37 37 38 39 39 40 40 41 41 42 43 43 44 45 45 46 46 47 48 49 50 51 52 52 52 52 53 53 53 53 53 53 53
35 35 35 35 35 36 36 37 37 37 38 38 38 39 40 40 41 41 41 42 42 43 44 45 45 45 46 46 47 48 49 50 51 51 51 51 51 51 52 52 52 51 51 51
36 36 36 36 36 36 37 37 38 38 39 39 39 40 40 41 41 42 43 43 44 44 45 45 45 46 46 47 48 49 50 50 50 50 50 51 51 50 50 50 50 50 50 50

GEFSNGP_500_meanwind_168.txt.gz
Wind_Speed
8 7 8 8 8 9 10 10 10 10 11 11 12 12 13 13 13 13 14 14 15 15 16 15 16 15 16 16 17 17 17 17 17 17 17 18 18 18 18 19 19 19 20 20
8 8 9 9 9 9 10 11 11 11 11 12 13 13 13 13 13 14 14 15 15 15 16 16 16 16 16 17 18 17 18 18 19 19 18 18 18 19 19 20 20 21 21 22
10 10 10 10 10 11 11 11 12 12 12 13 13 13 14 15 15 15 15 15 15 15 16 16 17 17 17 18 18 19 19 19 19 20 20 20 20 21 21 21 21 22 22 23
12 12 12 10 12 12 12 12 13 12 13 14 14 15 16 16 16 16 16 16 17 17 17 18 18 18 19 19 20 20 21 21 21 22 22 22 22 22 22 23 23 24 24 25
14 14 13 12 13 14 14 13 14 14 14 15 16 17 17 18 18 18 18 18 18 19 19 19 19 20 20 20 21 22 22 22 23 23 23 23 23 23 24 24 25 25 26 26
16 15 14 13 14 15 15 15 15 16 16 16 17 17 18 18 18 19 19 20 20 20 20 21 21 21 22 22 22 22 23 23 24 24 24 24 25 25 26 27 27 27 28 28
17 17 15 14 15 16 16 16 16 17 17 18 18 19 19 20 20 20 21 21 22 22 22 22 22 23 23 23 23 23 24 24 25 25 25 26 26 27 28 28 28 29 30 30
20 19 16 16 17 17 18 18 18 19 19 20 20 21 21 21 22 22 22 22 23 23 23 23 23 23 23 24 24 25 25 25 25 26 27 27 28 29 29 30 30 31 31 32
22 21 20 20 19 19 20 20 20 21 21 22 22 22 23 23 23 23 24 24 24 24 24 24 24 25 25 26 26 26 26 27 27 28 29 30 30 31 31 32 32 32 33 34
24 23 23 22 22 22 22 22 22 23 23 24 24 24 25 25 26 25 25 25 26 26 26 26 26 27 27 28 28 29 29 29 30 30 31 32 32 33 33 34 34 35 35 36
26 25 25 25 25 24 24 24 24 25 25 26 26 26 27 27 26 26 27 27 27 28 28 28 28 28 28 29 29 30 30 31 31 32 32 33 34 35 35 36 36 37 38 39
26 26 27 26 26 26 26 26 27 27 27 27 27 27 28 28 29 29 29 29 29 29 29 29 29 29 29 30 30 31 31 32 33 33 34 35 35 36 37 38 38 39 40 41
27 27 27 27 27 27 27 27 28 29 29 28 28 28 29 29 30 30 30 30 30 30 30 31 31 31 31 31 32 32 33 33 34 34 35 36 37 37 39 40 41 41 42 43
28 29 28 28 28 28 28 28 28 29 29 29 29 29 29 29 30 30 30 30 30 30 31 31 32 32 32 33 33 34 34 35 35 36 37 37 39 40 41 42 43 44 44 46
30 30 30 29 29 29 29 29 29 29 30 30 30 30 30 30 30 31 30 31 31 31 32 32 33 33 34 34 35 35 35 36 37 38 39 40 41 42 43 44 45 45 46 47
31 31 31 31 31 31 30 31 31 31 31 31 31 31 31 31 31 31 32 32 32 33 34 34 35 35 36 36 36 37 37 38 39 40 40 41 42 43 44 45 46 47 47 48
32 32 32 33 32 32 32 32 32 32 32 32 31 31 31 31 32 32 33 33 34 35 35 36 36 36 37 38 38 39 39 40 41 42 42 43 43 44 45 46 46 47 48 49
32 32 33 33 34 34 34 34 33 33 33 33 33 33 33 33 33 33 34 34 35 35 36 36 36 37 38 38 39 40 41 41 42 43 43 44 45 45 46 46 47 48 49 50
33 33 33 34 34 34 34 34 34 34 34 34 34 34 34 34 34 34 34 35 35 35 36 37 37 38 39 39 40 41 42 42 43 43 44 45 46 46 47 48 49 50 51 52
34 34 34 34 34 34 35 35 35 35 34 34 34 34 34 34 34 35 35 36 36 37 37 37 37 38 40 40 41 41 42 43 44 44 45 46 47 48 49 50 51 52 52 52
34 35 35 35 35 35 35 35 35 35 34 35 35 35 35 35 36 36 36 36 36 37 37 38 39 39 40 41 41 42 43 43 44 45 46 47 48 48 49 50 51 51 51 52
34 34 34 34 35 34 34 34 34 34 34 34 34 35 35 36 36 36 36 36 37 38 38 39 39 40 41 41 42 43 44 44 45 46 47 48 49 49 49 50 50 51 51 52
34 34 34 34 34 34 35 35 35 34 34 34 34 35 35 35 35 36 36 37 38 39 39 39 40 40 41 42 42 43 44 45 46 46 47 48 49 49 49 50 51 51 52 52
35 35 35 35 35 35 35 35 34 35 35 35 35 35 36 36 36 37 38 38 39 39 40 40 40 41 42 43 43 44 45 45 46 46 46 47 48 49 50 50 51 51 52 52
35 35 35 35 35 35 35 36 36 36 36 36 36 36 36 36 37 38 39 39 40 40 41 41 42 42 43 44 44 45 45 46 46 46 46 47 48 49 50 51 51 51 52 52
35 35 35 35 36 36 37 37 37 38 38 38 37 38 38 38 38 39 39 40 41 41 42 42 43 43 43 44 44 45 45 45 46 47 47 48 48 49 49 50 50 51 51 51
35 36 36 36 37 37 37 38 38 39 39 39 39 39 40 40 40 40 41 41 42 42 42 42 43 43 43 43 44 44 45 45 46 47 48 48 48 48 48 49 49 50 50 50

GEFSNGP_500_meanwind_174.txt.gz
Wind_Speed
7 7 8 8 9 9 9 9 10 10 10 11 11 10 10 11 12 12 12 13 14 14 14 14 14 14 15 15 16 16 16 16 17 17 17 17 18 18 18 18 18 18 18 18
7 7 7 8 9 9 10 10 10 11 11 12 12 11 11 12 12 13 13 13 14 14 14 15 15 15 16 17 17 17 17 18 18 18 18 18 19 18 18 18 19 19 19 19
8 8 8 9 9 9 10 10 11 11 12 12 12 12 13 13 13 13 13 13 14 15 15 16 16 16 17 18 18 19 19 19 20 20 19 19 19 19 19 20 20 20 20 20
9 10 10 9 10 10 11 11 12 12 13 13 13 13 14 14 14 14 15 15 15 16 16 16 17 17 18 19 19 20 20 20 20 20 20 20 20 20 21 21 21 21 22 22
11 11 10 11 11 11 11 11 12 12 13 14 14 14 15 15 15 16 16 16 17 17 18 18 18 18 19 19 20 20 20 20 21 21 21 21 21 22 22 22 23 23 24 24
13 13 13 12 12 12 13 13 12 13 13 14 14 15 15 16 16 17 17 17 18 19 19 20 19 20 20 20 20 21 21 21 21 22 22 22 23 23 24 24 25 25 25 26
16 15 14 13 13 13 13 13 14 14 15 15 16 16 16 17 17 18 18 19 19 20 20 20 21 21 21 21 21 22 22 22 23 23 23 24 24 25 25 25 26 26 27 27
18 18 16 15 15 15 15 15 15 15 16 16 17 18 18 18 19 19 20 20 20 20 20 21 22 22 22 23 23 23 24 24 24 24 25 25 26 26 27 27 27 28 29 29
20 20 19 19 19 18 18 18 17 17 18 18 18 18 19 20 20 20 20 20 21 22 22 22 23 23 24 24 24 25 25 25 26 26 26 26 27 28 28 29 29 30 31 32
23 22 21 21 21 21 20 20 20 20 20 20 20 20 20 21 21 21 21 22 22 23 23 24 24 25 25 26 26 26 26 27 27 28 28 28 29 30 30 31 31 32 33 34
24 23 23 23 23 23 22 22 22 22 21 21 22 22 22 23 23 23 23 24 24 25 25 26 26 27 27 27 27 28 28 28 29 29 30 30 31 32 32 32 33 34 34 35
25 25 25 25 25 25 24 23 23 23 23 23 23 23 23 24 25 26 26 27 27 27 27 28 28 28 28 29 29 29 30 30 31 31 32 32 32 33 34 34 34 35 35 36
26 26 26 26 25 25 26 25 25 25 25 24 24 24 25 26 27 27 28 28 29 29 29 29 30 30 30 30 31 31 32 32 33 33 33 33 34 34 35 35 36 36 37 38
28 28 28 27 27 27 27 26 26 26 26 26 26 26 26 27 27 28 28 29 29 30 30 30 31 31 31 31 32 32 33 33 33 34 34 34 35 36 36 37 38 38 39 41
29 30 29 28 28 28 28 28 27 27 28 28 28 28 28 28 28 29 29 30 31 31 32 32 32 32 32 32 33 33 34 34 34 35 35 36 37 38 38 39 40 40 41 42
29 30 29 29 28 29 29 29 29 29 29 29 30 30 29 29 30 30 31 31 32 32 33 33 33 34 33 33 34 34 35 35 36 36 37 38 39 40 40 41 42 42 43 44
30 30 30 29 29 30 30 30 30 29 29 30 30 31 31 31 31 32 32 33 32 32 33 33 34 34 34 34 35 35 36 37 38 38 39 39 40 41 42 42 43 44 45 46
30 30 30 30 30 31 31 31 31 30 30 30 31 32 32 32 32 32 32 33 33 33 33 33 33 33 34 35 36 37 38 38 39 39 40 40 41 42 43 44 45 45 46 46
31 31 31 31 31 31 31 32 32 32 32 32 32 32 32 32 32 32 32 32 32 32 32 33 33 34 34 35 36 36 37 38 39 40 41 42 43 43 44 44 45 46 46 47
31 32 32 32 31 31 31 31 32 32 32 32 32 32 32 32 32 32 32 32 33 33 33 33 33 34 35 36 37 38 38 39 39 40 41 42 43 43 44 44 45 46 47 48
31 32 32 33 33 32 32 32 32 32 32 32 32 32 32 32 33 33 33 33 33 33 33 33 34 35 36 37 38 38 39 39 39 40 41 42 42 43 44 44 45 45 46 47
32 33 33 33 34 33 33 33 33 32 32 32 33 33 33 33 33 33 33 33 33 33 34 34 35 36 37 37 38 38 39 39 40 40 41 42 43 43 44 44 45 45 46 46
32 33 33 33 33 33 33 33 34 34 33 33 33 33 33 34 34 34 34 34 34 35 35 36 36 37 38 38 39 39 39 40 40 41 41 42 42 43 43 44 44 45 45 45
33 33 33 33 33 33 33 33 34 34 34 34 34 34 35 35 35 35 35 35 35 36 36 37 37 38 39 39 39 40 40 41 41 42 42 43 44 44 44 44 44 44 45 46
33 33 33 33 33 33 33 34 34 34 34 34 34 34 35 35 35 36 36 36 37 37 37 38 38 38 39 39 40 40 41 42 42 43 43 44 44 44 44 44 44 44 45 46
33 33 33 33 33 33 33 33 32 33 33 33 34 35 35 36 36 37 37 37 37 38 38 38 39 39 40 40 41 41 42 43 43 43 44 44 43 43 44 44 44 44 44 45
34 34 35 34 34 34 34 34 34 34 34 34 35 36 36 36 37 37 37 37 37 38 39 39 40 40 40 41 41 42 42 43 43 43 43 43 43 43 43 44 44 44 44 45

GEFSNGP_500_meanwind_180.txt.gz
Wind_Speed
8 8 7 8 9 10 11 10 10 10 11 11 12 12 12 12 13 13 13 12 13 13 13 13 14 14 14 14 14 14 15 15 15 15 15 16 17 17 18 18 19 19 19 19
7 8 8 9 10 11 12 12 10 11 11 11 11 12 12 13 14 13 13 13 14 14 14 15 15 15 14 14 15 15 15 16 16 16 17 17 17 18 19 19 19 20 20 20
8 8 9 10 10 11 11 12 13 13 13 12 13 12 13 13 13 13 13 13 14 14 15 15 16 15 15 16 16 16 17 17 17 18 18 19 19 20 20 20 21 21 21 21
10 10 11 10 10 11 12 12 12 13 13 12 12 13 13 13 12 13 13 14 14 15 15 16 16 16 17 17 18 18 18 18 18 19 20 20 20 21 21 21 21 22 22 23
12 12 13 12 11 11 12 12 12 13 13 13 13 14 14 13 13 13 14 14 15 16 17 17 17 18 18 18 19 20 20 19 20 20 21 21 21 22 22 22 22 23 24 24
14 14 15 15 13 13 13 13 13 14 15 15 15 15 15 15 15 16 16 17 18 18 19 19 19 19 19 19 19 20 20 21 21 21 22 22 22 23 23 23 23 24 24 24
16 16 17 16 16 15 15 15 15 15 16 16 17 17 17 18 18 18 18 19 20 20 20 20 20 20 21 21 21 21 21 21 22 22 22 23 23 24 24 24 25 25 25 26
18 18 20 18 18 18 17 16 17 18 18 17 18 19 19 19 19 19 20 20 20 21 21 21 21 21 22 22 22 22 22 23 23 23 24 24 25 25 25 25 26 26 27 28
21 21 21 21 20 20 19 18 18 19 20 20 20 20 20 20 20 21 21 21 21 21 22 22 22 22 23 23 24 24 25 25 25 25 26 26 26 26 27 27 27 28 29 30
23 23 23 23 22 22 21 21 21 21 21 21 21 21 21 21 21 22 22 22 23 23 22 23 23 24 25 25 26 26 27 27 27 27 27 27 28 28 29 29 30 31 32 32
25 25 25 24 23 23 23 22 22 22 22 22 22 22 22 23 23 23 23 23 23 24 24 24 25 25 26 26 27 27 28 28 29 29 29 29 30 30 31 32 33 33 34 34
26 26 27 26 25 24 25 24 24 23 24 23 23 23 23 23 23 23 23 24 25 25 25 26 26 27 27 28 28 28 29 30 30 31 31 31 31 32 32 33 34 34 35 36
28 27 28 28 26 26 26 26 25 25 25 25 24 25 25 25 25 25 25 26 26 27 27 27 28 29 29 30 31 31 32 32 32 32 32 32 33 33 33 34 35 36 37 37
29 29 29 28 28 27 27 27 27 27 27 26 26 26 27 27 27 27 27 27 27 28 29 29 30 31 32 32 33 33 33 33 33 33 34 34 34 35 35 35 36 37 38 39
31 30 30 29 29 29 28 28 28 28 28 28 28 28 28 28 28 28 29 29 29 29 30 31 32 33 33 33 34 34 34 34 34 34 35 35 36 36 37 38 38 38 39 40
32 32 31 32 31 31 31 30 30 30 29 29 29 29 29 29 29 29 29 30 30 30 31 32 33 33 33 33 33 34 34 34 35 35 35 36 37 38 38 39 40 41 41 42
33 32 32 33 33 33 32 32 31 31 31 31 31 30 30 31 31 31 31 31 32 32 32 32 33 33 33 33 33 33 34 34 35 36 37 37 38 39 40 41 42 42 43 44
33 33 33 33 33 33 33 33 33 33 33 32 32 32 32 32 32 32 32 33 33 33 33 33 33 33 34 34 34 34 35 35 36 37 38 39 39 40 41 42 43 43 44 44
33 33 33 33 34 34 34 34 34 34 33 33 32 33 33 33 33 33 33 33 33 34 34 34 34 35 35 35 35 35 36 37 38 39 40 40 41 42 42 43 43 44 45 45
33 33 33 34 34 34 34 34 34 34 34 34 34 33 33 33 33 33 34 34 35 35 35 36 36 36 36 36 37 37 38 39 39 40 40 41 42 42 43 43 43 44 44 45
33 33 34 34 34 34 34 35 35 34 34 34 34 34 34 33 33 34 35 35 36 36 36 36 36 37 37 37 37 38 39 39 40 40 41 42 42 43 43 43 44 45 45 45
33 34 34 34 34 34 34 34 35 34 34 34 34 34 34 34 34 34 35 35 36 36 37 37 37 38 37 37 37 38 39 40 41 41 42 42 42 42 43 43 44 44 45 45
33 33 34 34 34 34 34 35 34 34 34 33 34 34 34 34 35 35 35 35 36 37 37 37 37 37 37 38 38 39 40 40 41 42 42 42 42 43 43 43 44 44 45 45
33 34 33 34 34 35 34 34 34 34 33 33 34 34 34 35 35 35 35 35 36 37 37 38 38 38 38 39 39 40 40 41 41 42 41 41 42 42 43 43 43 43 44 44
34 34 34 34 34 34 34 34 34 34 34 35 35 35 36 36 36 36 36 37 37 37 38 38 38 39 39 40 40 41 42 42 41 41 41 41 42 43 43 43 43 43 44 45
35 34 34 34 34 34 34 34 34 35 35 36 36 36 36 37 37 37 37 38 38 39 39 39 39 40 41 41 42 42 42 41 41 41 42 42 43 43 43 43 43 44 44 44
35 35 35 35 35 35 35 35 35 35 36 36 36 36 37 37 37 37 37 38 39 39 40 40 41 41 41 42 42 42 41 41 42 42 42 42 42 43 43 43 44 44 44 44

GEFSNGP_500_meanwind_186.txt.gz
Wind_Speed
7 7 8 8 7 8 8 7 7 7 8 7 8 8 8 8 9 9 10 10 11 11 12 13 13 13 14 14 15 15 15 15 16 16 16 16 16 16 16 16 16 16 17 17
9 8 8 9 8 8 9 8 8 8 8 8 9 9 8 9 9 10 11 12 13 13 13 13 13 13 14 14 16 16 15 15 16 16 16 16 16 16 17 17 17 18 18 18
11 10 10 8 8 8 8 9 10 10 9 11 10 10 9 9 10 10 11 12 12 12 13 14 13 14 14 15 15 15 15 16 17 17 17 17 17 18 18 19 19 19 20 20
12 13 13 10 10 10 9 9 9 10 11 11 11 11 10 10 10 11 12 12 12 13 13 13 14 14 15 15 16 16 17 17 17 18 18 18 18 19 19 19 19 19 20 20
14 14 13 11 12 11 11 10 10 10 9 10 11 11 11 11 11 12 14 14 13 14 15 15 14 15 15 16 16 17 18 18 19 19 19 19 19 20 20 20 20 21 21 21
16 16 14 12 12 12 12 10 10 10 10 10 11 12 11 12 12 12 13 13 14 15 16 16 15 16 16 16 17 17 18 19 20 20 20 20 21 21 22 22 22 23 23 23
17 16 15 13 13 13 13 11 11 12 12 12 12 12 11 12 12 12 13 13 14 15 16 16 17 17 18 18 18 18 19 19 20 20 21 21 22 23 24 24 24 24 24 25
19 18 16 14 15 15 14 13 13 14 14 14 14 13 12 12 13 14 15 16 16 17 17 18 19 19 19 18 19 20 20 21 22 22 23 23 23 24 24 25 25 26 26 26
20 19 17 16 17 16 16 16 15 15 15 15 16 16 15 15 15 16 17 18 18 19 19 19 20 20 20 20 21 21 22 22 23 23 24 24 25 25 25 26 26 27 27 27
22 20 19 19 18 18 18 17 17 16 16 16 17 18 17 17 17 18 19 20 20 20 20 21 21 21 22 22 23 23 24 24 24 24 25 26 26 27 27 28 28 28 28 28
22 21 21 21 20 20 20 20 19 18 18 18 18 18 19 19 19 20 21 21 21 21 21 21 22 22 23 24 24 25 26 26 26 26 27 27 28 28 29 29 30 30 30 30
23 22 23 22 22 22 21 21 20 20 20 20 19 20 20 21 21 22 22 22 22 22 23 23 24 24 25 26 26 27 27 28 28 28 29 29 29 29 29 30 30 31 31 32
25 25 24 23 23 23 23 22 21 21 21 21 21 21 22 22 22 22 22 23 23 24 24 25 26 26 26 27 27 27 28 28 28 29 29 29 30 30 31 31 32 32 33 34
26 26 25 25 25 24 24 23 23 23 23 23 23 23 23 23 23 23 24 24 25 25 26 26 26 27 27 27 27 28 28 29 29 30 30 31 31 32 32 33 33 34 34 35
27 27 27 26 26 26 26 25 25 24 24 25 25 24 24 24 24 24 25 25 25 26 27 27 27 28 28 28 28 29 29 30 30 31 32 33 33 34 34 35 35 35 36 37
28 28 28 28 27 27 28 28 28 27 27 27 26 26 26 26 25 25 26 26 27 27 27 28 28 28 29 29 29 30 30 31 32 33 33 34 35 35 36 36 37 38 38 39
29 29 29 29 28 28 29 29 30 29 30 29 29 28 28 27 27 27 28 28 28 28 28 28 28 29 29 30 30 31 32 33 33 34 34 35 36 37 38 38 39 39 40 41
30 30 30 30 29 29 30 30 30 30 31 31 31 30 30 29 30 29 29 30 29 29 28 29 30 30 31 31 32 33 34 34 35 35 35 36 37 37 38 39 40 41 42 43
31 31 31 31 31 31 31 31 31 32 32 32 32 32 31 31 31 31 31 31 31 31 30 31 31 32 32 33 34 34 35 35 36 36 37 37 38 39 40 40 41 42 43 44
32 32 32 32 32 32 32 32 32 32 33 33 33 33 33 33 33 33 33 32 32 32 32 32 33 33 33 33 34 35 35 36 37 38 38 39 40 40 41 42 42 43 44 44
32 32 32 32 32 32 32 32 32 33 33 33 33 34 34 34 34 34 33 33 33 33 33 33 34 34 34 35 35 36 36 37 38 39 40 40 40 41 41 42 42 43 43 43
31 31 31 31 32 33 33 33 33 33 33 33 33 34 34 33 34 34 34 33 34 34 34 34 35 35 35 36 37 37 38 39 39 39 39 39 40 41 41 41 42 42 42 42
31 30 30 31 31 31 32 32 33 33 33 33 33 32 33 33 33 33 34 34 34 34 35 35 36 36 37 38 39 39 39 39 39 39 39 39 40 40 41 41 41 42 42 43
30 30 30 30 31 31 31 31 32 32 32 32 31 31 32 32 33 33 34 34 35 35 35 36 37 38 38 39 39 39 39 39 38 38 39 39 40 40 41 41 41 42 42 43
30 30 31 31 31 31 31 31 32 31 31 31 31 32 32 33 33 34 34 34 35 35 36 36 37 37 38 38 38 38 38 38 38 39 40 40 41 42 42 41 41 42 42 43
30 30 31 31 31 31 32 32 32 31 31 32 32 32 32 33 34 34 34 34 35 35 36 36 37 37 38 38 38 38 38 39 39 40 40 41 41 41 41 41 41 41 42 42
30 30 30 31 31 32 32 32 32 32 33 33 32 32 32 32 33 33 34 35 35 36 36 36 37 37 37 37 38 38 39 39 40 41 41 41 41 41 41 41 42 42 42 42

GEFSNGP_500_meanwind_192.txt.gz
Wind_Speed
10 10 10 10 10 10 10 10 10 9 9 9 9 10 10 10 11 12 13 13 13 13 14 14 14 15 15 15 15 15 15 15 16 16 16 16 17 18 18 18 19 19 19 19
11 11 11 11 10 10 9 9 9 9 9 10 11 11 11 12 12 13 14 14 15 15 15 15 15 15 15 15 15 15 15 15 16 16 17 17 18 18 18 19 19 19 19 20
13 12 13 13 11 10 10 9 9 9 9 10 11 11 12 13 13 14 15 15 15 16 16 15 15 15 15 15 15 16 16 16 16 17 17 18 18 19 19 19 19 19 20 20
14 14 15 12 12 11 11 10 9 9 10 11 12 12 12 12 13 14 15 15 15 16 16 16 16 15 15 15 16 16 16 17 17 17 18 18 18 19 19 20 20 21 21 21
16 16 15 13 12 12 12 11 12 11 11 12 12 12 12 12 13 14 15 16 16 17 17 17 16 16 16 17 16 17 17 17 17 18 18 19 19 19 20 21 21 22 22 22
18 17 16 13 13 14 14 13 13 13 13 13 13 13 13 13 13 14 15 17 17 17 17 17 17 17 17 18 18 17 17 17 18 19 19 20 20 21 21 22 22 23 23 23
19 18 17 15 15 15 15 13 14 15 15 15 15 14 14 14 14 15 16 16 17 17 18 17 18 19 19 18 18 17 17 18 18 19 19 20 21 22 22 23 23 23 23 23
21 20 18 17 17 17 15 15 15 15 15 15 15 15 15 15 15 15 15 16 16 17 18 18 18 19 20 19 19 19 18 19 19 19 20 21 22 22 23 23 23 24 24 25
22 21 20 18 18 18 18 17 16 16 16 16 16 16 17 17 16 15 14 15 15 16 17 18 18 19 19 20 20 20 20 20 20 21 22 23 23 23 24 24 24 25 26 26
24 22 21 20 20 20 19 19 18 18 18 17 17 17 18 18 18 17 16 15 16 17 17 18 19 19 19 19 19 20 21 22 22 23 23 23 24 24 25 26 26 27 27 28
25 24 23 22 21 21 21 21 20 20 20 19 19 18 18 18 18 18 18 18 18 18 19 19 19 20 20 20 21 22 23 23 23 23 24 24 25 26 27 27 28 29 29 30
26 24 24 22 22 22 22 22 21 22 21 21 20 20 20 20 20 20 20 20 20 20 20 21 22 22 23 23 22 23 24 24 25 25 25 26 27 28 28 29 30 31 31 32
26 25 24 23 23 23 23 23 23 23 23 22 22 22 22 22 22 23 23 22 23 23 23 23 23 24 24 24 23 23 24 24 25 26 28 29 29 29 30 31 32 33 33 34
27 26 25 24 24 25 24 24 24 25 25 24 24 24 24 24 24 24 24 25 25 25 25 25 25 25 25 25 25 25 26 26 27 28 29 30 31 31 32 33 34 34 35 36
28 27 26 25 25 25 25 25 25 25 26 26 25 25 25 25 25 25 25 26 26 26 26 26 26 26 26 26 26 27 28 28 29 30 31 32 32 33 34 35 36 36 37 38
28 28 28 27 27 27 26 25 26 26 27 27 27 28 27 27 26 27 27 27 28 28 28 28 28 28 28 28 28 29 29 30 31 32 33 34 34 35 36 36 37 38 39 39
29 29 29 29 28 28 28 27 27 27 28 28 28 28 28 29 29 29 29 29 29 29 29 29 30 30 30 30 30 30 31 32 33 34 35 36 36 37 37 38 38 39 40 41
29 29 29 29 29 29 29 29 28 28 28 29 29 29 29 30 30 30 30 30 30 31 31 31 31 31 32 32 32 33 33 33 34 35 36 36 37 37 38 39 40 40 41 41
30 30 30 30 29 29 29 29 29 29 29 30 30 30 30 31 31 31 32 32 32 32 32 32 32 33 33 33 34 34 34 34 35 36 37 37 38 38 39 40 41 41 41 42
31 30 30 30 30 29 29 29 30 30 30 31 31 31 31 31 32 32 32 32 33 33 34 34 34 34 34 34 34 35 35 36 36 37 38 39 39 40 41 41 42 42 43 43
30 30 29 29 29 30 30 30 31 31 32 32 33 33 32 32 33 33 33 33 33 34 34 34 34 34 35 35 35 36 37 37 38 39 40 41 41 41 42 42 42 43 43 43
30 30 30 30 30 30 31 31 31 32 32 33 33 33 33 34 34 34 33 33 32 33 33 34 34 35 36 36 37 38 38 39 40 40 41 41 41 41 41 42 43 43 43 42
30 30 30 31 31 31 31 31 32 32 33 33 34 34 34 35 34 34 33 32 32 32 33 33 34 35 36 36 37 38 39 40 40 40 41 41 41 41 41 42 42 42 42 42
32 31 31 32 32 32 32 32 33 34 34 34 34 34 34 34 34 34 34 33 33 34 34 35 35 35 36 37 37 38 39 40 40 40 40 40 40 41 41 41 41 41 41 42
32 32 32 32 32 32 32 32 33 33 33 33 33 33 34 34 34 34 34 33 34 34 35 35 36 36 36 37 38 39 39 40 40 40 40 40 41 41 41 41 41 41 41 41
32 32 31 31 31 31 31 31 31 30 31 31 31 32 33 33 33 34 35 35 35 35 36 36 36 36 37 37 38 39 39 40 40 40 40 40 40 41 41 41 41 41 41 42
32 32 31 31 31 31 31 30 30 30 30 30 31 31 31 31 32 32 33 33 34 35 35 36 36 36 37 38 38 38 39 39 40 40 39 40 40 40 41 41 41 41 42 42

GEFSNGP_500_meanwind_198.txt.gz
Wind_Speed
13 13 13 12 12 12 12 12 12 12 11 11 10 10 10 11 11 11 12 13 14 14 14 15 15 15 15 15 15 15 15 15 15 16 16 16 16 16 17 17 17 17 17 17
15 15 14 13 13 14 13 12 12 12 12 12 11 11 11 11 11 12 12 13 14 15 15 15 15 16 15 15 15 16 16 16 16 17 17 17 17 17 17 17 17 17 17 18
17 16 16 15 13 14 14 13 13 12 11 12 12 12 12 11 12 12 13 14 15 15 15 14 14 14 14 15 15 15 16 16 16 17 17 17 17 17 18 18 18 19 19 19
18 17 18 15 14 14 14 14 13 12 11 12 12 12 12 12 12 12 13 14 14 14 14 14 14 14 15 16 16 16 16 16 17 17 17 17 17 18 18 19 19 19 19 19
19 19 18 17 15 15 15 14 14 13 12 12 12 12 12 13 13 13 14 14 14 14 14 14 15 15 16 17 17 17 17 17 18 18 18 18 18 19 19 19 19 19 19 19
20 20 20 18 17 17 16 16 15 14 13 13 13 13 13 14 14 14 15 15 15 15 15 16 16 16 16 16 17 17 17 18 19 19 19 19 19 19 19 19 19 19 19 20
21 22 21 20 19 18 18 16 16 16 15 15 15 14 14 14 15 15 15 16 16 16 16 17 17 16 17 17 17 17 17 18 19 19 19 19 19 19 19 19 20 20 20 21
21 22 21 21 20 19 19 18 17 17 16 16 16 16 15 15 15 15 16 16 16 17 17 17 18 18 17 17 18 18 18 19 19 20 19 19 20 20 20 20 21 21 22 23
22 22 21 21 21 20 20 19 18 18 17 17 17 17 17 17 16 16 17 16 17 17 17 18 18 19 19 19 19 19 20 20 21 21 21 21 21 22 22 22 22 23 23 24
23 23 22 22 22 21 21 20 19 19 18 18 18 18 18 18 17 17 18 18 18 18 18 19 20 21 21 21 21 22 22 22 22 22 22 22 23 23 24 24 24 24 24 25
24 24 23 22 22 22 21 21 20 20 19 19 19 18 18 19 19 19 19 19 19 19 19 20 21 22 22 23 23 23 24 24 24 23 23 23 24 24 25 25 25 26 26 26
25 25 25 23 22 22 22 22 21 21 20 20 20 19 19 20 20 20 20 20 20 20 19 20 20 21 22 23 24 24 24 24 24 24 24 24 25 26 26 27 27 28 28 29
26 26 26 25 24 23 23 22 22 22 21 21 21 21 21 22 22 22 22 22 22 22 22 22 22 22 23 24 24 24 25 25 25 26 26 26 27 28 29 29 30 30 31 32
26 27 27 27 26 25 24 23 23 23 22 22 22 22 22 22 22 22 22 23 23 23 23 23 24 24 24 24 25 25 26 27 28 29 29 29 29 30 31 32 33 33 33 34
27 27 27 27 26 26 25 24 24 24 24 24 23 23 23 23 23 23 23 24 24 25 24 24 25 25 26 26 27 28 28 29 29 30 31 31 32 33 33 34 34 35 35 36
27 27 27 28 27 26 26 25 25 24 24 24 24 24 24 24 24 24 24 24 25 25 26 26 26 27 28 29 29 29 30 30 31 31 32 33 33 33 34 35 35 36 37 37
28 27 27 28 29 28 26 26 25 25 26 25 25 25 25 24 24 24 25 26 26 27 27 28 28 29 30 31 31 30 31 31 32 32 32 33 33 34 34 35 36 37 38 39
28 28 28 29 29 29 27 27 26 27 27 26 26 25 25 25 25 26 26 26 27 28 28 29 29 29 30 30 31 31 32 32 32 32 32 33 34 35 35 36 37 38 39 40
28 29 29 29 29 29 29 28 28 27 27 27 26 26 26 26 26 26 26 27 28 29 29 29 29 30 30 31 32 32 32 32 32 33 34 34 35 36 36 37 38 39 39 40
28 29 28 29 29 29 29 29 29 28 28 27 27 27 27 27 27 27 27 27 27 28 28 29 30 30 31 31 31 32 32 32 33 34 35 36 36 36 37 38 39 40 40 40
29 29 29 29 30 29 29 30 29 29 29 29 28 28 28 28 28 28 28 28 28 29 29 30 30 30 31 31 31 32 32 33 34 35 36 36 36 37 38 39 39 40 41 41
30 30 30 30 30 30 30 30 30 30 30 29 29 29 29 29 29 29 29 29 29 30 30 30 30 31 32 32 33 34 34 34 34 34 35 36 36 37 38 39 39 40 41 41
30 30 30 30 30 31 31 31 31 30 30 31 30 30 30 30 30 30 30 30 30 30 30 31 31 32 33 33 34 34 33 33 34 34 35 36 37 37 38 39 40 40 41 41
31 30 30 30 31 31 31 31 31 31 31 31 31 31 31 30 30 30 30 30 30 31 31 32 33 33 33 33 32 32 33 33 34 35 36 37 37 38 38 39 40 40 40 40
31 31 31 31 31 31 31 31 31 31 31 31 31 31 31 30 30 30 30 30 31 31 32 33 33 33 33 33 33 33 33 33 34 35 36 36 37 37 38 39 39 39 39 39
31 30 30 31 31 30 30 30 31 31 31 31 31 31 31 30 30 30 30 30 31 31 31 32 32 32 32 32 32 33 34 34 34 35 36 36 37 37 38 38 39 38 38 38
30 31 30 30 30 30 30 30 31 31 30 30 30 30 30 31 31 31 31 31 31 30 31 31 31 31 31 31 32 32 33 33 34 35 36 36 37 37 38 38 38 38 38 38

GEFSNGP_500_meanwind_204.txt.gz
Wind_Speed
15 14 14 13 13 14 15 15 15 14 14 14 14 14 14 14 13 14 14 14 14 14 14 13 14 14 14 14 14 15 15 15 15 15 15 15 16 16 17 17 17 17 18 18
17 16 16 16 15 14 15 16 17 16 15 15 14 14 16 15 15 14 14 14 14 14 14 14 14 14 15 15 15 16 16 16 16 16 16 16 16 17 17 17 18 18 18 19
17 17 17 17 15 16 16 17 18 18 17 16 16 16 16 17 16 16 15 14 14 13 13 14 14 15 15 16 16 16 16 17 17 17 17 17 17 17 17 18 18 19 19 20
17 17 19 16 15 17 18 18 18 19 18 17 17 17 17 17 17 16 15 15 14 13 14 14 14 14 14 15 16 16 16 16 17 17 18 18 18 18 18 18 18 19 19 19
19 19 20 18 16 17 18 18 18 19 19 19 18 18 18 18 17 17 16 15 15 15 15 15 15 15 15 16 16 17 17 16 16 17 18 18 19 18 18 19 19 19 20 20
20 20 21 19 18 18 19 19 18 19 19 19 18 19 18 17 17 16 16 16 16 16 17 16 16 16 17 17 17 17 17 17 17 17 18 19 19 19 19 19 20 21 21 21
22 22 23 20 20 19 21 20 18 19 19 19 18 19 18 18 17 17 16 16 16 16 17 17 17 17 18 18 17 17 17 17 18 18 18 19 19 19 19 20 21 21 22 22
22 23 23 21 21 21 22 21 20 20 19 19 19 19 19 19 18 17 17 17 17 16 17 18 18 19 19 19 19 19 19 19 19 19 20 20 20 21 21 21 22 23 23 24
23 24 22 22 22 23 23 22 22 22 21 20 19 20 20 20 19 18 18 18 18 18 18 18 19 19 19 19 19 19 20 20 20 20 21 21 22 22 22 23 23 24 24 25
25 25 24 24 23 23 24 24 23 23 22 22 21 20 20 21 21 19 19 19 19 20 20 20 20 20 20 21 21 21 21 21 21 21 22 22 23 23 24 24 25 25 25 26
28 26 26 26 26 25 26 25 24 24 23 23 22 21 21 22 22 21 21 21 21 21 22 22 22 22 22 22 22 22 22 23 23 23 23 24 25 25 25 25 26 26 27 28
28 27 28 27 27 27 27 26 25 24 23 23 23 22 22 22 23 23 23 22 22 23 23 23 23 23 23 23 23 23 24 24 24 24 24 25 27 27 28 28 28 29 30 30
29 29 29 28 28 29 29 27 26 24 24 24 24 23 23 23 24 24 23 23 24 24 24 24 24 24 24 24 25 25 25 25 26 27 27 27 29 29 29 30 30 31 31 32
29 29 29 28 28 29 29 28 26 25 25 24 24 24 23 23 24 24 23 23 24 24 25 25 25 25 25 25 26 26 26 27 27 28 28 29 29 30 31 31 31 32 32 33
29 29 29 28 28 28 29 28 27 26 26 25 25 25 24 24 24 24 24 24 24 24 25 25 25 25 26 27 27 28 28 28 28 29 29 30 31 31 31 32 32 32 33 34
30 30 30 29 28 28 28 28 27 26 26 26 26 26 26 25 25 24 24 25 25 25 25 26 26 26 27 27 28 29 29 29 29 30 31 31 32 32 32 32 32 33 34 34
31 31 31 30 29 29 29 28 28 27 26 26 26 27 27 26 26 25 26 26 27 26 26 27 27 28 29 29 29 30 29 29 30 30 31 32 32 32 33 34 34 34 35 35
32 31 31 30 29 29 30 29 28 27 26 26 26 27 27 27 27 27 27 27 27 27 28 28 29 29 30 29 30 30 29 30 30 31 32 32 32 33 33 33 34 34 34 35
32 32 32 32 31 30 30 30 29 29 28 28 28 28 28 28 28 28 28 29 28 28 28 29 29 30 30 29 29 29 30 31 31 32 33 33 32 33 33 33 34 35 35 35
33 33 33 32 31 30 30 30 29 30 29 29 29 29 29 29 28 28 28 29 29 29 29 29 30 30 30 30 30 30 31 31 32 32 33 33 32 32 33 33 34 35 35 36
34 33 33 32 31 30 30 29 29 29 29 30 30 30 30 30 29 29 29 30 29 29 29 29 29 30 30 30 30 31 31 32 32 32 32 32 33 33 33 34 35 35 36 37
32 32 32 31 31 31 30 31 30 30 29 29 30 31 31 31 30 30 30 30 30 30 30 30 30 30 30 31 31 31 32 31 32 32 32 33 33 34 34 35 35 36 37 37
31 30 31 31 31 30 31 31 31 31 30 30 30 31 31 31 31 30 30 30 30 30 31 31 31 31 31 31 31 32 32 32 32 33 33 33 34 34 35 36 36 37 36 37
30 30 30 30 30 30 30 31 31 31 31 31 31 32 32 32 32 31 31 31 31 31 31 32 32 32 32 32 32 32 33 32 32 33 33 34 34 35 36 36 36 36 36 37
29 30 30 30 30 30 30 30 30 30 30 31 31 32 32 33 33 32 32 32 32 31 31 31 32 32 32 32 32 32 32 32 33 33 33 34 34 34 35 35 35 35 35 36
28 29 30 30 30 29 29 29 30 30 30 30 30 30 31 32 32 32 32 32 31 31 31 31 31 32 32 32 32 32 32 32 33 32 33 33 33 33 33 33 33 34 34 35
29 29 29 29 30 31 31 30 30 29 29 29 30 30 30 31 32 32 31 31 31 31 31 31 31 31 31 31 32 32 31 31 31 31 32 32 32 31 32 32 32 33 34 35

GEFSNGP_500_meanwind_210.txt.gz
Wind_Speed
12 11 11 11 12 12 13 12 13 12 12 11 11 11 11 11 11 11 11 11 11 11 12 12 12 12 12 13 14 14 15 15 15 15 15 15 16 16 17 17 16 17 17 17
14 14 14 13 12 14 14 15 15 15 14 13 14 13 13 12 12 12 13 13 12 13 13 13 13 13 13 14 14 14 15 15 16 16 16 16 16 17 17 17 17 17 18 18
16 15 16 15 14 14 15 15 15 15 14 15 16 15 14 14 13 13 14 14 13 13 13 13 14 14 14 14 14 14 14 14 15 15 16 16 16 16 16 17 17 17 17 17
18 17 18 15 15 16 16 16 16 16 15 15 16 16 16 15 15 15 15 15 14 13 13 13 14 13 14 14 14 14 14 14 15 15 16 16 16 17 17 17 17 18 18 19
20 19 19 17 16 17 17 16 16 16 16 16 16 16 16 16 17 16 15 15 15 14 14 14 14 14 14 14 14 14 14 15 15 16 17 17 18 18 18 18 18 19 19 19
21 22 21 17 17 17 18 18 17 17 16 17 17 17 16 16 16 16 16 15 15 14 14 14 14 14 14 15 15 15 15 15 16 17 18 18 19 19 19 19 19 20 20 20
22 22 21 19 18 18 19 19 18 18 18 18 17 17 18 18 17 17 17 16 16 15 15 15 15 15 15 16 17 16 16 17 17 17 18 19 20 20 20 20 21 21 22 22
24 24 22 20 20 20 20 20 20 20 20 19 19 19 19 19 19 18 17 18 17 17 17 16 16 16 16 16 17 18 18 19 19 19 20 21 21 21 22 22 23 23 23 24
25 24 22 21 22 22 22 22 22 21 21 21 20 20 20 20 20 20 19 19 18 18 18 17 18 18 17 18 19 20 20 20 20 21 21 22 22 22 22 23 24 24 24 25
26 24 23 23 23 23 23 23 22 22 22 22 22 22 22 22 22 22 21 21 20 20 19 18 19 19 19 19 21 22 21 22 22 22 23 23 23 23 23 24 25 25 25 26
27 26 25 24 24 24 23 23 23 23 23 23 23 23 22 22 23 23 22 22 22 21 21 20 20 21 21 21 22 23 23 24 24 24 24 24 25 25 25 25 26 26 26 27
27 26 27 26 26 25 25 25 24 24 24 24 23 23 23 23 24 23 23 23 23 23 22 22 23 23 23 23 24 24 24 25 25 26 26 26 26 27 27 26 27 27 27 28
27 28 28 27 27 27 26 26 25 24 24 24 24 24 24 24 24 24 24 24 24 24 24 24 24 25 25 25 25 25 25 25 25 26 26 26 27 27 27 28 28 28 28 29
28 29 28 27 27 28 27 27 26 26 25 25 25 25 25 25 25 26 26 26 26 26 25 25 25 25 25 26 25 25 26 26 26 26 27 27 27 27 27 28 28 28 28 29
29 29 28 28 27 27 28 27 27 27 27 26 26 26 27 27 26 26 26 27 27 27 26 26 26 26 26 26 26 26 26 26 26 27 27 28 28 28 28 29 29 29 29 30
28 28 29 29 28 28 28 28 28 28 28 28 27 27 28 28 27 27 27 27 27 27 27 26 26 26 26 26 27 26 26 27 27 28 28 28 28 29 30 29 30 30 30 30
30 30 30 30 29 29 29 29 28 28 28 28 28 28 28 28 27 27 27 27 27 27 26 26 26 26 26 26 26 27 27 28 28 29 29 29 29 29 29 30 30 31 31 32
31 31 32 31 30 30 30 30 29 29 29 28 28 28 29 28 28 28 27 27 26 26 26 26 26 26 26 26 27 27 28 29 29 29 29 30 30 30 30 31 31 32 33 33
31 31 32 32 31 31 31 31 30 29 29 28 28 28 29 29 29 29 28 27 26 26 26 26 26 26 27 27 27 28 28 28 28 29 29 30 30 30 30 31 31 32 32 32
31 32 31 31 31 31 31 30 30 29 28 28 28 29 29 29 28 28 28 28 27 27 27 27 27 27 27 27 28 28 29 29 28 29 29 29 29 29 30 31 31 32 32 32
31 31 30 31 31 30 30 30 30 29 28 28 28 28 28 28 27 28 28 28 27 28 28 28 28 28 28 28 29 29 29 28 28 28 28 28 29 30 30 31 32 32 32 32
30 30 30 30 30 29 29 29 30 29 29 29 28 28 28 28 28 28 28 27 27 28 28 28 28 28 28 29 29 28 28 28 28 28 28 29 30 30 31 31 32 32 32 32
30 30 30 31 31 30 30 30 30 30 30 30 29 29 29 29 29 28 27 27 27 27 28 28 28 28 29 29 29 29 29 28 28 29 30 30 30 31 31 32 32 31 32 32
29 29 29 30 30 30 30 30 30 30 30 30 30 29 29 29 29 28 28 28 28 28 28 28 29 29 30 30 30 31 30 30 30 30 30 30 31 31 31 31 31 31 31 31
28 28 28 28 29 29 29 30 30 30 31 31 31 30 30 29 29 28 28 29 29 29 29 28 28 29 30 30 31 31 31 30 30 31 31 31 31 31 31 31 30 30 31 31
29 28 27 28 29 29 29 29 30 30 30 30 30 29 29 29 29 28 28 29 30 29 29 29 29 29 29 29 30 30 30 30 30 31 31 30 30 30 30 30 30 30 31 31
30 29 29 29 29 30 30 30 30 31 31 30 29 28 28 29 29 28 29 29 29 29 28 28 28 29 29 29 29 29 29 29 29 30 29 29 29 29 29 30 30 31 31 31

GEFSNGP_500_meanwind_216.txt.gz
Wind_Speed
14 14 14 14 13 13 13 13 14 13 13 12 13 12 12 12 13 13 14 14 12 12 13 13 13 14 14 14 15 15 14 14 13 13 13 14 14 14 15 15 15 16 15 15
16 16 16 15 14 14 15 15 15 14 13 13 14 14 13 13 14 14 14 14 13 13 14 14 14 15 15 15 16 16 15 14 15 15 15 15 15 15 15 15 15 16 16 16
17 17 18 16 15 15 16 16 16 16 15 15 15 15 14 15 15 15 14 14 15 15 16 16 15 15 16 16 16 16 15 16 16 16 16 16 16 16 16 16 16 16 17 17
19 19 19 17 17 17 17 18 18 17 17 17 17 16 16 16 16 16 15 15 15 15 15 16 16 15 15 16 16 16 16 16 16 16 16 16 17 17 17 18 18 18 19 19
21 21 19 18 18 18 18 18 18 18 18 18 18 18 17 17 17 18 17 17 16 16 16 16 16 16 16 16 17 17 17 16 17 17 17 17 18 18 19 19 20 20 20 21
23 23 21 19 19 20 20 18 18 19 18 18 19 19 18 18 18 19 18 18 18 18 18 18 18 18 18 18 18 18 18 18 18 19 19 19 20 19 20 20 21 21 22 22
24 24 22 20 20 21 21 19 19 19 20 20 20 20 20 20 20 20 20 20 20 20 20 20 19 19 19 19 19 19 20 20 20 20 20 20 21 21 21 21 22 23 23 23
25 25 23 22 22 22 22 21 21 20 21 21 21 21 21 21 21 20 21 21 22 21 21 21 20 20 20 20 20 20 21 21 21 21 21 21 21 22 22 23 23 23 24 25
26 26 25 25 24 23 23 23 22 22 22 22 22 23 23 22 22 21 21 22 23 23 22 22 21 21 20 20 21 21 21 21 22 22 22 22 23 23 23 24 25 25 25 26
26 26 27 26 25 25 25 24 23 23 23 23 23 24 23 23 23 23 22 23 23 23 23 22 21 21 21 22 21 22 22 23 23 23 23 24 24 24 24 26 26 26 26 26
26 26 26 26 26 26 26 26 25 24 24 24 24 24 24 23 24 24 24 24 24 24 23 22 22 22 22 23 23 23 23 24 24 24 25 25 25 25 26 27 27 27 26 27
27 26 27 27 26 26 27 26 26 25 24 24 24 24 24 25 25 25 25 25 25 25 24 24 24 24 23 24 24 24 24 24 24 25 25 26 26 26 26 26 27 27 27 27
28 28 28 27 28 28 27 26 26 26 26 26 25 25 25 26 26 27 27 27 26 25 25 25 26 26 25 25 26 26 26 25 24 25 25 26 26 26 25 26 26 27 27 28
28 29 29 29 29 29 28 28 28 28 28 28 27 26 26 26 26 27 27 27 27 26 26 26 27 28 28 27 27 27 27 26 26 25 25 25 25 26 26 25 25 26 28 29
30 30 29 30 30 29 29 29 29 29 29 29 29 28 28 27 27 27 28 28 28 28 27 27 28 28 28 28 28 27 27 27 27 27 26 26 26 26 26 26 26 27 28 29
31 31 30 30 30 30 30 30 29 30 30 30 30 30 30 29 28 28 28 29 29 29 28 28 28 28 28 28 28 28 28 28 28 27 26 25 25 26 27 27 28 29 30 30
32 32 32 31 30 30 30 30 30 30 30 30 30 30 30 30 30 29 29 29 29 29 29 28 28 28 28 28 28 29 29 28 28 28 27 26 26 26 27 28 29 30 30 31
33 33 33 32 32 31 31 31 31 30 31 31 30 30 31 31 31 31 30 30 30 29 29 29 29 29 29 29 29 29 29 29 29 28 28 28 28 28 28 29 29 30 31 31
34 33 33 33 32 32 32 32 32 32 32 32 32 32 32 32 32 31 31 31 30 30 29 29 29 29 29 29 30 29 29 29 30 29 29 29 30 30 30 31 31 31 31 31
35 35 34 34 33 33 32 32 33 33 33 33 33 33 32 32 32 32 31 31 30 29 29 28 29 29 29 29 29 29 29 29 29 29 28 29 29 30 30 31 31 30 30 30
34 34 34 33 33 33 33 33 34 34 33 33 33 33 33 33 33 33 32 31 30 30 29 29 28 28 28 29 29 29 29 29 30 29 29 29 29 30 30 31 31 31 30 30
33 33 34 34 33 33 33 33 33 33 33 33 33 33 33 33 33 33 32 31 30 30 30 29 29 29 28 29 29 29 29 29 29 29 29 30 30 31 32 32 31 31 31 31
33 33 33 33 34 34 34 34 34 33 33 33 34 34 34 33 33 32 32 31 31 30 30 30 30 29 29 29 29 29 29 30 30 29 30 30 31 31 31 32 31 31 31 31
33 33 33 33 33 33 33 33 34 34 34 35 35 35 35 35 34 33 32 32 32 31 31 31 31 30 30 30 30 30 30 30 31 30 31 30 31 31 31 31 31 30 30 30
33 33 33 33 33 33 34 34 34 35 35 35 35 35 35 35 34 34 33 33 32 32 32 32 31 30 30 31 31 31 31 31 31 31 31 31 31 30 31 31 31 31 31 30
32 32 32 33 32 32 33 34 34 35 35 35 34 34 33 33 33 33 33 33 32 32 32 31 31 31 31 31 31 32 32 32 32 32 31 31 31 30 30 31 31 32 31 30
33 32 31 31 31 30 31 31 32 33 33 33 32 32 32 31 31 32 32 32 32 31 31 31 31 31 31 31 32 32 32 32 32 32 31 31 30 31 31 31 31 31 30 30

GEFSNGP_500_meanwind_222.txt.gz
Wind_Speed
12 12 12 12 12 12 12 12 13 13 13 13 13 13 14 14 14 13 13 14 13 13 13 13 14 14 14 15 14 14 14 14 15 16 17 17 17 17 16 17 17 17 17 16
14 14 14 14 14 14 13 13 13 14 14 14 14 14 14 15 15 15 15 15 15 15 15 15 15 15 15 15 16 16 16 16 17 17 17 18 18 18 17 17 17 17 18 17
17 16 16 16 15 15 15 15 15 15 15 15 15 15 15 15 16 16 16 15 16 16 17 17 17 16 16 17 17 18 18 18 18 18 18 17 18 18 18 18 19 19 19 19
19 18 18 17 16 16 16 16 16 16 16 16 16 16 16 16 16 16 16 16 16 17 18 18 18 18 18 18 18 18 19 19 19 19 19 19 19 19 19 19 19 20 20 21
20 21 20 19 18 17 17 17 17 17 17 17 17 17 17 17 17 17 17 17 17 18 18 19 19 19 20 20 20 20 20 20 19 20 20 20 20 20 21 21 21 21 21 22
21 22 23 21 19 19 20 19 18 18 18 18 18 18 18 18 18 18 18 18 18 18 19 20 20 21 21 21 21 21 21 21 21 20 21 20 21 21 22 22 22 22 22 22
22 23 24 23 21 20 21 21 20 20 20 20 20 20 20 20 20 20 20 20 20 20 21 21 21 21 21 21 21 21 21 21 21 21 21 21 22 22 22 23 23 22 23 23
23 24 24 24 23 22 23 23 22 21 21 21 21 21 21 21 21 21 21 22 22 22 22 22 22 21 22 22 22 22 22 22 21 21 22 22 22 23 23 23 23 23 24 24
25 24 25 25 25 24 24 24 24 24 23 23 23 22 22 22 22 22 22 23 23 23 22 22 22 22 22 23 23 23 23 23 22 22 22 23 23 23 24 24 24 24 23 23
25 25 25 25 26 26 26 25 25 25 25 24 24 24 24 24 23 23 23 23 24 24 24 23 23 23 23 23 24 24 23 23 23 23 23 24 24 24 24 25 24 24 24 24
26 25 26 26 27 28 28 27 26 26 26 26 25 25 25 25 25 25 24 24 24 24 24 25 25 25 25 24 24 24 24 24 24 25 25 25 25 25 25 25 25 25 25 25
27 26 27 27 27 28 28 28 27 27 27 27 26 26 26 26 26 26 25 25 25 25 25 25 25 26 26 26 26 25 25 24 25 25 25 26 26 27 27 26 25 25 25 25
28 27 27 27 28 28 29 29 28 28 28 27 27 27 27 26 27 26 26 25 26 26 26 26 26 26 26 26 25 25 25 25 26 26 26 26 26 27 27 27 26 26 26 26
29 29 28 28 28 29 29 29 29 29 28 27 27 27 27 27 27 27 26 26 26 27 27 27 26 26 26 26 26 26 26 26 27 26 26 26 27 28 27 27 27 27 27 27
30 31 30 30 29 29 29 30 30 29 28 28 28 28 28 29 28 28 28 28 28 28 28 28 28 27 27 27 27 27 27 27 26 27 27 27 28 28 27 27 28 27 28 28
31 31 31 31 30 29 29 29 29 29 29 29 29 29 29 30 29 29 29 30 29 29 29 29 29 28 28 28 28 28 28 27 27 28 28 28 29 29 28 28 28 28 28 28
32 32 32 31 30 30 30 30 29 29 29 29 30 30 30 30 30 30 30 31 31 30 31 30 30 29 28 28 28 28 28 28 28 29 29 29 29 30 29 29 30 30 30 29
31 32 32 32 31 31 31 31 31 31 31 30 30 30 30 30 31 31 31 31 31 31 31 31 30 30 29 29 29 29 29 29 30 30 30 29 29 30 30 30 31 31 31 31
31 31 31 32 32 32 32 33 33 33 32 31 31 31 32 32 32 31 31 31 32 31 31 31 30 30 30 30 31 30 30 30 30 31 31 31 30 30 31 31 32 31 31 31
31 31 31 31 32 32 32 32 32 32 32 32 32 32 32 33 33 32 32 32 32 31 32 32 32 31 31 31 32 32 31 31 31 31 31 31 30 30 31 32 32 32 31 31
32 31 31 32 32 32 33 33 34 34 34 34 33 33 33 33 33 33 32 32 32 32 32 33 33 32 31 31 31 32 31 31 32 32 31 31 31 31 31 32 32 32 32 31
32 32 33 33 33 33 34 34 35 34 34 34 34 33 33 33 33 33 32 32 32 32 33 33 33 32 32 32 32 32 32 32 32 32 31 30 31 31 31 31 31 32 32 32
31 32 32 33 34 34 33 33 33 34 34 34 34 33 33 33 33 33 32 32 32 33 33 33 33 32 32 33 33 32 32 31 31 31 31 31 31 31 31 31 31 32 32 31
31 31 31 32 33 32 32 32 32 33 33 33 33 32 32 32 32 32 32 32 32 32 32 32 32 32 32 32 32 32 31 31 31 31 31 31 31 31 31 31 31 31 31 30
30 30 31 31 31 31 31 31 31 32 32 32 33 33 33 33 33 32 32 32 32 32 32 32 31 31 32 32 32 32 32 32 32 32 31 31 31 31 32 32 32 31 30 30
29 29 29 30 30 30 30 31 31 31 32 33 32 32 32 33 32 32 32 32 32 32 32 32 32 32 32 32 32 32 33 33 33 32 32 31 31 31 32 32 32 32 31 31
29 29 29 30 30 30 30 30 31 31 32 32 32 32 32 32 32 31 31 31 32 32 31 31 32 31 31 32 32 32 32 32 33 33 33 32 32 32 33 32 32 31 31 31

GEFSNGP_500_meanwind_228.txt.gz
Wind_Speed
15 15 16 16 16 15 14 15 15 15 16 17 17 18 16 15 15 15 15 15 15 14 14 15 15 15 16 16 16 16 16 16 16 16 16 16 17 18 18 19 19 19 19 19
16 16 17 17 16 16 16 17 16 17 17 18 18 18 18 17 16 16 16 16 16 16 16 16 16 16 16 17 17 17 17 17 17 17 17 17 18 19 19 20 20 20 20 19
18 18 19 19 18 18 18 19 19 19 19 20 20 20 20 19 18 17 17 17 17 17 18 18 17 17 18 18 18 18 18 19 19 19 19 19 19 20 20 20 21 21 21 20
19 19 21 21 20 20 20 20 20 21 20 20 21 21 20 20 20 19 19 18 18 19 19 19 19 19 19 20 20 20 20 20 20 20 20 20 21 21 21 22 22 22 22 22
20 21 22 22 22 21 21 21 20 21 22 21 21 22 21 21 22 21 21 20 20 20 20 20 21 21 21 21 21 21 21 21 21 21 21 21 22 22 23 24 23 23 23 23
23 23 24 23 23 22 23 23 22 22 22 23 22 22 22 21 22 23 23 23 22 22 22 22 23 23 23 22 22 22 22 22 22 22 23 23 23 23 24 23 24 24 24 24
25 26 26 26 25 24 25 25 24 23 23 24 25 24 24 23 24 24 24 24 24 24 24 24 24 24 24 24 24 23 23 23 23 23 23 24 24 25 24 24 24 24 24 25
26 26 27 27 26 26 27 27 26 26 26 26 27 27 26 26 25 25 25 25 26 26 26 26 26 26 26 26 25 25 25 24 25 24 24 25 25 25 25 25 25 25 25 26
27 27 28 28 28 28 29 29 28 28 28 28 28 28 28 27 26 26 26 26 27 27 27 27 27 27 27 27 27 26 26 25 25 26 26 26 26 25 25 25 26 26 26 26
29 29 29 30 30 29 30 30 30 29 29 30 29 29 29 28 28 27 27 27 27 27 27 27 28 27 27 27 27 27 27 27 26 27 27 27 27 26 26 26 26 26 27 27
31 31 31 31 32 31 31 32 32 31 31 31 31 30 30 29 29 29 28 28 28 28 28 27 27 27 27 27 28 28 28 28 28 28 28 27 27 27 27 27 27 27 27 27
32 32 32 33 33 33 32 33 33 32 31 31 32 32 31 31 30 30 30 29 29 28 28 28 28 27 27 28 29 29 28 28 28 28 28 28 28 28 28 29 29 29 29 28
33 33 33 34 34 34 33 33 34 33 32 32 32 32 31 31 31 30 30 30 29 29 29 29 29 29 29 29 29 29 29 29 28 29 28 28 28 28 29 29 30 30 30 30
33 33 33 33 34 34 34 35 34 33 33 33 32 32 32 31 31 30 30 30 30 30 30 30 30 30 30 30 30 30 30 29 29 29 29 29 30 30 30 30 30 30 30 30
33 34 34 34 34 35 35 35 34 34 33 33 33 33 33 32 32 32 31 31 31 31 31 31 31 31 31 31 31 31 31 31 31 30 29 30 30 30 31 31 31 30 30 30
34 34 34 34 34 34 34 34 34 33 33 33 33 33 33 33 33 32 32 32 31 31 32 32 31 31 31 31 31 30 31 31 32 31 30 31 31 31 31 31 31 30 30 30
34 34 34 34 33 33 33 33 33 33 33 33 33 33 33 32 32 32 31 31 32 32 33 33 32 32 31 31 31 31 30 31 31 32 31 31 31 31 31 31 31 31 30 30
35 35 35 34 34 33 33 33 33 32 32 33 33 33 32 32 32 32 32 33 33 33 33 32 32 32 32 31 31 31 31 31 31 31 32 31 31 31 31 31 31 31 30 30
34 35 35 35 35 34 34 33 33 32 32 32 32 31 31 31 32 32 32 33 34 33 33 33 32 33 33 32 32 32 32 32 32 32 31 31 31 31 32 31 31 31 30 30
34 34 35 35 35 35 34 34 33 33 33 33 33 32 32 32 32 32 33 33 33 34 33 34 34 33 34 34 34 34 33 33 33 33 32 31 30 31 31 31 31 31 30 30
34 34 34 35 35 35 35 35 34 34 33 33 34 33 33 33 33 33 33 33 33 33 34 34 34 34 34 34 34 34 34 34 34 34 33 32 32 32 31 31 31 31 30 30
34 34 34 34 34 33 33 34 34 34 34 34 34 34 33 33 33 33 33 34 34 34 34 35 35 35 35 35 34 34 34 34 35 34 33 33 32 32 32 33 32 31 30 30
34 34 34 33 33 32 32 33 34 34 33 33 33 34 34 34 34 34 34 34 34 35 35 34 35 35 35 35 35 35 34 34 35 34 33 33 32 32 33 33 32 31 30 30
32 32 33 33 33 32 32 32 33 33 34 33 34 34 34 34 35 35 35 35 35 35 35 35 35 35 35 35 35 34 34 34 34 33 33 33 32 33 33 32 31 31 30 30
32 32 32 32 32 31 31 31 32 32 33 33 34 34 34 35 35 35 35 35 35 35 35 35 35 35 35 35 34 34 34 34 33 33 33 32 33 33 32 31 32 31 31 31
31 32 31 31 31 31 31 31 31 32 32 33 33 33 34 34 35 35 35 35 35 35 35 35 34 34 34 34 34 34 34 34 33 33 33 33 33 33 32 31 30 31 31 31
32 32 31 31 31 31 32 32 32 32 33 33 33 34 34 34 34 35 35 35 35 35 34 34 34 34 34 34 34 34 33 33 33 33 33 33 33 33 32 31 30 30 31 31

GEFSNGP_500_meanwind_234.txt.gz
Wind_Speed
15 15 15 14 14 14 15 15 15 15 15 15 14 14 14 14 14 15 15 15 16 15 14 14 14 14 14 14 13 14 14 15 15 14 15 15 15 16 17 17 18 18 19 19
16 16 16 15 15 15 15 16 16 16 16 16 17 16 16 15 15 15 16 16 16 16 16 16 15 15 15 15 16 16 16 16 16 16 16 16 17 17 18 19 19 19 20 20
17 17 18 17 16 17 17 17 18 18 18 18 18 18 17 17 17 17 16 17 17 17 17 17 17 17 17 17 18 17 17 18 18 18 18 18 18 19 20 20 20 20 20 21
18 18 19 17 17 18 18 18 18 19 20 19 20 20 19 18 19 19 19 19 18 18 18 18 19 19 18 19 19 19 19 20 20 20 20 20 20 20 21 21 21 21 21 22
21 21 21 19 19 20 21 20 20 21 20 20 21 21 20 19 20 21 21 20 20 20 20 20 20 21 21 21 21 21 21 21 21 21 21 22 22 22 22 22 22 22 22 23
23 24 23 21 21 22 23 22 22 22 22 22 22 22 22 21 21 22 22 22 21 22 22 22 22 23 23 23 23 23 23 22 22 23 23 23 23 23 23 23 23 24 24 24
25 26 25 23 23 23 24 23 23 23 24 24 23 23 23 23 23 23 23 24 24 24 24 24 24 25 24 24 25 25 25 24 25 25 25 24 24 25 25 25 25 25 26 25
26 27 26 26 26 25 25 26 26 25 25 25 25 24 24 24 24 24 24 25 25 25 25 25 26 26 26 26 26 26 26 26 26 26 25 26 26 26 26 26 26 27 27 26
27 27 27 27 27 27 27 27 27 27 26 27 27 27 27 26 25 26 26 25 25 26 26 26 26 27 27 27 27 27 27 27 27 27 27 27 27 27 28 28 27 27 27 27
28 27 27 27 28 28 28 28 28 27 27 28 29 29 28 28 27 27 27 27 27 27 27 27 27 27 27 27 27 27 27 27 27 27 28 28 29 29 29 29 28 28 27 27
28 28 29 29 30 30 29 29 28 28 28 28 28 29 29 30 29 28 28 28 29 29 29 28 28 28 28 28 28 28 28 28 28 28 29 29 29 29 29 29 28 28 28 28
28 28 30 30 30 31 30 30 29 29 29 28 29 29 29 30 31 31 30 29 29 29 29 29 29 29 29 29 29 29 29 29 29 29 30 30 30 30 30 30 29 29 29 29
30 30 31 31 31 31 31 31 31 30 30 30 30 30 31 32 31 31 31 31 31 31 30 30 30 30 30 31 31 30 30 30 30 30 30 30 30 30 30 30 31 30 30 29
32 33 33 33 33 33 33 33 32 31 31 30 31 31 31 31 31 31 32 32 32 32 31 31 31 31 31 31 31 31 30 30 30 30 31 31 31 31 31 31 31 30 30 30
33 34 34 34 34 34 34 34 33 32 32 31 32 32 33 33 33 33 33 33 33 32 32 31 31 31 31 31 31 31 31 31 30 31 31 32 32 32 32 32 31 31 31 30
34 34 35 34 34 34 34 34 34 33 32 32 31 31 32 32 33 33 32 32 32 32 32 32 32 31 31 31 31 31 31 31 31 31 32 32 32 33 33 32 32 32 31 31
34 34 34 34 33 33 33 33 33 32 31 31 30 30 30 30 30 30 30 30 30 30 30 30 30 31 31 31 31 31 31 32 32 32 33 33 33 33 32 32 32 31 31 30
33 33 33 33 32 31 31 31 31 31 31 32 31 31 30 30 30 30 29 30 30 30 30 30 30 30 30 30 31 32 32 32 33 33 33 33 33 32 32 32 32 32 32 31
32 32 32 32 32 31 31 31 32 31 31 31 31 30 30 30 30 30 30 30 30 31 31 31 31 30 30 31 31 32 32 33 33 33 33 33 32 32 32 32 32 32 31 31
31 31 31 31 32 32 32 32 32 31 30 30 30 30 30 30 30 30 31 31 31 31 31 31 31 30 31 31 32 32 32 32 32 32 33 33 33 32 32 32 32 32 31 31
31 31 31 32 32 32 32 32 32 31 30 30 30 30 30 31 31 32 32 32 32 32 32 31 31 31 31 32 33 33 32 32 33 33 33 33 33 32 32 32 33 32 32 32
31 31 32 32 32 32 32 32 32 32 31 31 31 31 31 31 31 32 32 32 32 32 32 31 31 32 32 33 33 33 33 33 33 33 33 33 33 33 32 32 33 32 32 33
31 31 31 31 32 32 32 32 31 32 32 32 31 31 31 31 32 32 32 32 32 32 33 33 33 33 33 34 34 34 34 34 34 34 34 34 34 33 33 32 32 32 33 33
32 32 32 31 32 32 32 32 32 32 32 31 31 31 32 32 32 32 32 33 33 33 33 34 34 35 35 35 35 35 35 34 34 34 35 35 35 35 34 33 32 33 33 33
32 32 32 32 32 32 32 32 32 32 32 31 31 32 32 32 32 32 32 32 33 33 34 34 35 36 36 35 35 35 35 35 34 34 35 35 35 35 34 34 34 33 32 32
32 32 32 33 33 33 33 33 32 32 31 31 31 32 32 33 33 33 33 33 33 33 34 34 35 35 36 36 36 36 35 35 35 35 34 35 35 35 35 34 34 33 32 31
31 31 32 32 32 32 32 32 32 32 32 32 32 32 33 33 34 34 34 34 34 34 35 35 35 35 35 35 35 36 35 35 34 34 34 34 34 34 34 34 33 32 32 32

GEFSNGP_500_meanwind_240.txt.gz
Wind_Speed
15 15 14 14 15 15 15 16 16 15 16 16 16 15 15 15 16 16 16 16 16 16 16 16 16 16 16 17 17 16 16 17 17 18 18 18 18 18 18 19 20 20 20 20
16 16 16 16 16 16 16 17 17 17 17 17 18 17 17 17 18 17 18 18 17 17 17 18 18 18 18 18 18 18 18 18 19 19 20 20 20 19 20 20 21 21 21 21
17 18 18 18 17 17 18 18 18 18 18 19 19 19 19 19 19 19 19 19 19 19 19 19 19 19 20 20 20 20 20 20 20 21 21 22 22 21 21 21 21 22 22 22
19 19 19 19 19 19 19 19 19 19 19 19 19 20 20 20 21 21 21 21 21 22 21 21 20 20 20 20 21 22 22 23 23 23 23 23 23 23 23 23 23 23 23 23
21 21 20 19 20 20 21 20 20 20 20 20 20 20 21 22 22 22 21 22 22 23 24 23 22 22 22 22 22 22 23 24 24 25 25 25 25 25 25 25 25 25 25 25
23 23 21 21 22 22 23 22 22 22 22 21 21 22 21 22 23 23 24 23 23 24 25 25 24 24 24 24 24 24 24 25 25 25 25 25 25 26 26 26 26 26 26 26
24 24 23 23 24 24 24 23 23 23 23 23 23 23 23 24 24 25 25 25 25 25 25 26 26 26 26 26 26 26 27 26 27 27 27 26 26 27 27 27 27 27 27 27
25 25 24 24 25 25 25 25 25 25 25 25 24 24 25 25 26 26 26 27 26 26 27 27 27 28 28 29 28 29 29 28 28 28 28 28 28 28 28 28 28 29 29 28
26 26 26 26 26 26 27 26 26 27 27 27 27 26 27 27 27 27 28 29 29 29 29 29 29 29 29 29 30 30 29 29 29 29 29 29 29 29 29 29 30 30 30 29
28 27 27 27 27 27 28 28 27 28 28 28 29 29 29 29 29 28 29 30 30 30 30 31 31 32 30 30 30 31 30 30 30 30 30 30 30 30 31 31 31 31 31 30
30 29 29 29 29 29 29 29 28 28 28 28 29 30 30 30 30 30 30 31 31 31 32 32 32 32 32 32 32 32 32 31 31 31 31 31 31 32 32 32 32 31 31 31
31 30 31 31 31 31 31 30 30 30 29 30 30 30 30 31 31 31 32 32 32 32 33 33 33 33 33 33 33 33 33 32 32 32 31 31 32 32 32 32 32 32 32 32
32 32 32 32 32 32 32 32 31 31 31 32 32 32 32 32 32 32 34 34 34 34 34 33 33 34 34 33 33 33 33 33 33 32 32 32 32 32 32 32 32 32 32 33
32 33 33 33 33 33 33 33 33 32 33 33 34 34 33 33 33 33 34 34 35 35 34 33 34 34 34 34 34 34 34 34 34 34 33 33 32 32 33 33 33 33 32 33
31 32 33 34 34 34 34 34 34 34 34 34 35 35 35 34 34 33 33 34 35 35 34 34 34 34 34 34 34 34 34 35 34 34 34 33 33 33 34 34 34 33 33 33
32 32 33 34 34 35 35 35 35 35 35 35 35 34 35 35 34 34 35 35 35 34 35 35 35 35 35 34 34 34 34 34 34 33 33 33 34 34 35 35 35 34 34 33
32 33 33 33 33 34 34 35 35 35 35 34 33 33 34 34 34 34 34 34 34 34 34 35 35 35 34 34 33 33 33 33 33 33 33 34 33 34 34 35 35 34 34 34
33 33 33 33 34 34 34 34 34 34 34 33 33 33 33 33 34 34 33 33 33 33 33 33 34 34 33 33 33 33 32 32 33 33 33 34 34 34 34 34 34 35 34 34
34 34 34 34 34 34 34 34 34 34 34 34 34 33 33 34 33 33 33 34 33 32 32 33 33 33 33 33 33 33 33 33 33 33 33 34 34 34 34 34 35 35 35 35
34 34 34 34 35 35 35 34 34 34 34 35 34 34 34 34 34 34 34 34 34 33 32 32 32 33 33 33 33 33 33 34 34 34 34 34 34 34 34 35 35 35 34 34
33 34 34 34 34 34 35 35 35 35 35 35 35 34 34 34 34 34 34 33 33 33 33 33 33 33 33 33 33 33 34 35 35 36 36 36 36 35 35 35 35 34 34 34
32 32 33 33 33 34 34 35 35 35 35 35 35 35 34 34 34 34 33 33 33 33 33 33 33 34 34 34 34 34 35 35 36 37 37 36 36 36 35 35 35 35 35 35
32 33 34 34 35 35 35 35 35 35 35 34 34 34 34 34 34 34 33 33 33 33 33 33 33 33 33 34 34 35 35 36 36 36 37 36 36 36 35 35 35 35 35 35
33 33 34 34 35 35 35 35 35 35 35 35 35 34 34 34 34 34 33 33 34 34 34 34 34 34 34 34 35 35 34 35 35 35 36 35 35 35 34 34 34 34 34 34
32 32 33 33 34 34 35 35 35 35 35 35 35 35 35 35 35 34 34 34 34 34 35 35 35 35 35 35 35 35 35 35 35 35 34 34 34 33 33 34 34 33 33 33
31 32 32 32 33 33 34 34 34 34 35 35 35 36 35 35 35 35 35 35 35 35 36 35 35 35 35 35 35 35 35 35 35 34 33 33 33 33 33 33 34 34 34 34
31 32 32 32 32 33 33 34 34 34 35 35 35 35 35 35 35 35 35 35 35 36 36 36 35 35 34 34 34 35 35 34 34 33 33 33 33 33 33 33 34 34 34 34

GEFSNGP_500_meanwind_246.txt.gz
Wind_Speed
16 16 16 16 15 15 16 16 16 16 16 16 16 16 17 17 17 17 18 18 17 17 17 17 17 18 18 18 19 19 19 19 19 19 19 19 20 20 19 19 19 20 20 20
16 16 17 17 16 17 18 18 18 18 19 19 18 18 18 18 18 19 19 19 19 19 19 19 19 20 20 21 21 21 21 21 21 21 21 21 21 21 21 21 21 22 22 21
17 17 18 18 17 18 19 19 20 20 21 21 21 20 20 20 19 20 20 20 20 20 20 20 21 21 21 22 23 23 23 22 22 23 23 23 23 22 22 22 22 23 23 22
19 19 20 19 19 20 20 21 21 21 22 22 22 21 21 21 20 20 21 21 21 21 21 22 22 22 23 23 24 24 24 24 24 24 24 24 24 24 24 24 23 24 24 24
21 22 22 21 20 21 22 22 22 22 22 22 22 22 21 21 22 22 22 22 22 22 23 23 24 24 24 24 25 25 25 25 26 26 25 25 26 25 25 24 25 25 25 26
22 23 23 22 22 22 23 23 23 23 23 23 23 23 23 23 23 23 23 23 24 24 24 24 24 25 25 26 26 26 26 26 26 26 26 26 25 25 25 26 26 26 26 27
23 24 24 24 23 23 23 24 24 24 24 23 23 24 24 25 25 25 24 24 25 25 25 25 25 26 26 26 27 27 27 27 27 27 27 27 26 27 27 28 28 28 28 28
24 25 25 25 25 25 26 26 25 25 25 25 25 26 26 26 26 26 26 25 26 26 27 27 27 27 27 28 28 28 28 28 29 29 29 28 28 29 29 30 30 30 29 29
26 27 27 27 27 27 27 27 27 26 26 27 27 27 27 27 26 27 27 27 27 28 28 28 28 28 29 29 29 30 30 30 30 30 30 30 31 31 31 31 31 31 31 30
27 28 28 28 28 28 28 28 28 28 27 27 28 28 28 28 27 27 28 28 28 29 29 30 29 29 30 31 31 32 32 32 31 31 31 31 31 32 32 32 32 32 32 32
28 28 29 29 29 28 28 28 28 28 28 28 28 27 28 28 29 29 29 29 30 30 31 31 31 31 32 32 32 33 34 33 32 32 32 32 32 33 33 33 34 34 33 32
28 29 29 29 28 29 29 29 28 28 28 29 29 29 29 29 30 30 31 31 31 32 33 33 33 33 33 34 34 34 33 33 34 33 33 33 34 34 34 34 34 34 34 33
29 28 28 28 28 29 30 29 30 30 30 30 30 30 30 30 31 31 32 33 33 33 34 35 34 35 35 35 35 35 34 35 35 35 35 35 35 35 35 35 34 34 34 33
30 30 29 28 29 29 30 30 30 31 31 31 31 31 31 32 33 33 33 34 34 35 35 35 36 36 36 36 36 36 36 36 37 36 36 36 36 36 35 35 34 33 33 33
30 30 30 29 29 30 30 30 30 30 31 31 31 32 32 32 33 33 34 34 35 36 36 37 37 36 36 36 36 36 37 37 37 37 37 36 36 36 35 35 34 34 34 33
30 30 30 30 29 29 30 30 31 31 31 32 32 33 33 33 33 33 33 35 36 36 37 37 36 36 37 37 37 37 36 36 36 36 35 35 35 35 34 34 34 34 34 34
30 30 31 31 30 30 31 31 31 30 31 31 32 32 32 33 33 34 34 35 36 36 36 37 36 36 36 36 36 35 35 36 36 36 35 34 34 33 33 33 33 33 34 34
30 30 30 30 31 31 31 32 32 32 32 33 34 33 33 33 33 34 34 34 35 35 35 35 35 35 35 35 34 34 34 34 34 33 33 33 33 33 33 33 33 33 32 33
31 31 31 31 32 32 33 33 33 33 33 33 33 33 33 33 33 33 33 33 33 33 33 33 33 33 33 33 33 34 34 34 34 34 33 33 33 33 34 33 33 32 32 32
32 32 32 33 33 33 33 33 33 33 33 33 33 33 33 33 33 33 33 33 32 32 32 32 32 33 33 32 32 32 33 33 33 33 33 33 33 33 34 34 33 33 32 32
32 32 33 33 33 33 33 33 33 33 33 33 33 33 33 33 33 33 32 32 32 31 31 32 32 32 32 32 32 32 32 32 33 33 34 34 34 34 34 34 34 34 33 33
31 31 32 32 32 32 32 32 32 32 32 33 33 33 33 33 33 33 33 32 32 32 32 32 33 33 34 34 34 34 34 34 34 35 35 34 34 35 34 34 34 34 34 34
31 31 32 32 31 31 31 32 32 32 32 33 33 33 33 34 34 34 33 33 33 33 34 34 34 34 34 35 35 35 35 35 35 35 35 34 34 34 34 34 34 34 34 34
29 30 31 31 31 31 31 32 32 32 32 33 33 33 33 33 34 35 35 34 33 33 34 34 34 34 34 35 35 36 35 34 34 33 33 34 34 34 34 34 34 34 34 34
29 30 30 31 31 32 32 32 32 33 33 33 33 34 34 34 34 34 34 34 33 33 33 34 34 35 35 34 34 34 34 34 33 32 32 33 33 33 33 33 33 33 33 33
29 29 30 30 31 31 32 32 32 33 33 33 33 34 35 36 35 35 35 34 34 34 34 34 34 34 34 34 34 34 34 33 33 33 33 33 33 33 33 33 33 33 32 32
30 30 30 30 31 32 32 33 33 34 34 34 34 35 35 35 36 36 35 35 34 34 33 33 32 33 33 34 34 33 33 33 33 33 33 33 32 32 32 32 32 32 32 32

GEFSNGP_500_meanwind_252.txt.gz
Wind_Speed
15 16 17 18 18 17 18 18 18 18 19 19 20 21 20 20 21 21 21 21 20 20 20 20 21 21 21 21 21 21 20 20 21 21 22 22 22 22 22 21 22 22 22 22
18 18 19 19 19 19 20 20 20 20 20 21 22 22 21 21 22 21 21 22 22 22 22 22 23 23 23 23 23 23 23 22 22 22 22 22 22 23 23 23 23 23 23 23
19 19 20 20 20 21 21 22 22 22 21 22 23 23 23 23 23 23 23 23 23 24 24 23 24 24 24 24 23 23 23 23 24 24 24 24 24 24 24 24 24 24 24 24
20 20 21 21 20 21 21 22 22 22 23 23 23 23 24 24 24 24 24 24 25 25 25 25 25 25 25 24 24 24 25 25 25 25 26 26 26 25 25 26 26 26 25 25
21 22 22 22 21 22 22 23 23 23 24 25 25 26 26 25 25 25 25 25 25 25 26 26 26 26 26 25 26 26 27 27 27 27 27 27 27 27 27 27 27 27 27 27
23 23 24 23 24 23 24 24 25 25 25 26 27 27 28 27 26 27 27 27 27 26 26 26 27 27 27 27 27 27 27 28 28 28 29 29 29 28 28 28 28 28 28 28
24 25 26 26 26 25 26 27 27 27 27 28 28 29 29 29 28 28 28 28 28 28 27 28 28 28 29 29 29 28 28 29 29 30 29 29 29 29 29 30 30 30 29 29
26 27 27 28 28 28 28 29 30 30 30 30 30 30 29 30 29 29 29 29 29 29 29 29 29 29 29 30 30 30 30 30 30 30 30 30 30 31 31 31 31 31 31 31
28 29 29 29 30 30 30 31 31 31 31 31 30 30 30 29 29 30 30 29 29 29 29 30 30 30 31 31 31 31 31 32 32 31 31 32 32 32 32 33 33 33 32 32
30 30 31 31 31 32 32 32 32 32 32 32 32 31 30 30 30 30 30 30 30 30 30 30 31 32 32 32 33 33 33 33 33 33 33 33 33 33 33 33 34 34 34 34
31 31 32 32 33 33 33 33 33 33 32 32 32 32 31 31 31 31 31 31 31 31 31 31 32 33 33 34 34 34 34 35 35 35 35 35 35 34 34 35 35 34 34 34
32 32 34 34 34 34 34 33 32 32 32 32 33 33 33 32 32 32 32 32 32 32 32 32 33 33 35 35 36 36 36 36 37 37 37 37 36 36 36 36 35 35 35 35
33 33 34 34 33 33 33 32 32 32 32 32 32 32 32 32 32 32 31 32 32 32 32 33 34 35 36 37 37 37 38 38 38 39 39 38 38 37 37 36 36 36 37 37
32 32 33 33 33 33 33 33 33 33 33 32 32 32 32 32 32 32 32 32 32 33 34 34 35 36 37 37 37 37 37 38 38 38 38 38 38 37 37 36 36 36 36 37
32 32 33 33 33 33 34 34 34 34 34 33 34 33 33 33 33 34 34 34 34 35 35 36 37 37 38 38 38 38 38 38 38 38 38 37 37 37 37 36 36 36 36 36
33 33 33 33 33 33 34 34 34 34 34 34 35 35 35 35 34 34 34 34 35 35 36 37 38 38 39 39 38 38 38 38 38 38 37 37 36 36 36 36 36 36 35 35
33 33 33 33 33 33 34 34 34 35 35 35 35 34 35 35 35 35 35 35 36 36 37 38 38 38 38 38 37 37 37 37 37 37 37 37 37 37 36 36 36 36 35 35
33 33 33 33 33 33 34 34 34 35 35 35 35 35 35 35 35 36 36 37 37 37 37 38 37 37 37 37 37 36 36 37 37 37 37 37 37 36 36 36 36 36 35 35
32 32 32 32 32 33 33 34 34 35 35 36 36 36 37 37 37 37 37 38 38 37 37 37 37 36 36 36 36 36 36 36 36 36 37 36 36 36 36 36 36 37 37 36
31 31 31 31 32 32 33 33 34 34 35 36 36 37 37 37 37 37 38 38 37 37 36 36 36 36 36 36 36 35 35 35 36 36 36 36 35 35 36 36 36 36 36 35
32 32 32 33 33 34 34 34 34 35 35 36 36 36 36 37 37 38 38 38 37 37 37 38 38 37 37 37 36 36 36 36 36 36 36 35 35 35 35 35 35 35 35 35
32 32 33 33 34 34 34 35 35 35 35 36 36 36 36 36 37 37 38 38 38 38 39 38 38 38 38 37 37 37 37 37 36 36 35 35 35 34 34 34 35 35 35 35
32 32 33 33 34 34 34 35 35 36 36 36 36 36 36 36 37 37 38 38 39 40 40 39 39 39 39 38 37 37 37 37 36 36 35 35 35 35 35 35 34 34 35 35
33 33 33 33 34 34 34 35 35 35 36 36 36 36 37 37 37 38 38 39 39 40 40 40 40 39 39 38 38 38 37 37 36 36 36 35 35 35 35 35 35 35 35 35
32 33 33 33 34 34 34 34 35 35 35 36 36 37 37 38 38 37 37 38 39 39 39 40 39 39 39 38 38 38 37 37 37 37 36 36 36 36 35 35 36 36 36 36
33 33 33 33 34 35 35 36 36 36 36 36 36 36 37 38 38 39 39 39 39 39 39 39 39 38 38 37 37 37 36 36 36 36 36 36 36 35 35 35 34 35 35 36
33 33 34 34 35 36 36 37 37 37 37 37 37 37 37 38 39 39 39 39 38 38 38 37 37 36 35 35 35 35 35 35 34 34 34 33 33 33 33 33 33 34 34 34

GEFSNGP_500_meanwind_258.txt.gz
Wind_Speed
14 15 16 16 16 16 16 16 17 16 16 16 17 17 16 16 17 18 18 18 18 18 18 19 19 20 20 19 19 19 20 20 20 20 20 20 20 20 20 20 20 20 20 21
16 17 18 17 17 18 17 17 17 17 17 17 18 18 18 18 19 19 19 19 19 19 18 19 20 21 21 21 21 20 20 20 21 21 20 20 20 20 21 22 21 21 21 22
17 18 18 18 18 19 19 19 19 18 18 18 19 20 20 20 20 20 20 20 21 21 21 21 21 22 22 22 22 22 22 21 21 22 22 22 22 21 22 22 22 23 23 23
19 19 20 18 19 20 21 20 20 20 20 20 20 21 21 22 22 22 22 22 22 22 22 22 22 22 23 23 23 23 24 23 23 23 23 23 23 23 24 24 24 24 25 25
21 21 20 19 20 21 22 22 21 22 22 22 21 21 22 22 23 23 24 24 23 23 23 23 23 23 24 24 24 24 25 25 25 25 25 25 25 25 25 25 26 26 25 26
22 23 22 20 20 22 23 23 23 23 23 24 24 24 24 24 24 24 25 24 24 23 23 24 24 24 25 25 25 25 25 26 26 26 27 26 26 26 27 27 27 26 27 27
23 24 23 22 21 22 24 24 24 24 24 25 25 25 26 26 26 26 26 26 25 25 25 25 25 25 26 26 26 26 26 27 27 28 28 28 28 28 28 29 28 28 28 28
25 25 24 24 24 24 24 25 26 25 26 26 26 26 27 27 27 27 27 27 27 27 27 27 27 27 27 27 27 27 27 28 28 28 28 28 28 29 30 30 30 30 30 29
26 26 26 26 26 26 26 27 27 27 27 27 27 27 28 28 28 28 28 28 28 29 29 29 29 29 28 28 28 28 29 29 29 29 29 29 29 30 31 31 31 31 31 31
27 27 27 28 28 29 29 29 29 29 28 28 28 28 28 29 29 28 28 29 29 29 29 29 30 30 29 29 29 29 30 30 30 30 30 30 31 32 32 31 32 32 32 32
29 30 31 31 30 30 30 31 31 31 30 30 30 30 30 30 29 29 29 30 29 29 29 30 30 31 31 31 31 31 31 31 31 32 32 32 32 33 33 33 34 34 35 35
30 30 30 30 31 30 31 31 31 31 31 31 32 32 31 31 31 31 31 31 31 30 31 31 32 32 32 32 32 32 32 32 33 33 33 33 34 34 34 34 35 36 36 36
31 30 30 29 30 30 30 31 31 32 32 33 33 33 33 32 32 32 32 32 32 32 32 32 32 32 32 32 33 33 33 33 34 35 35 35 35 35 35 35 36 36 37 37
30 30 29 29 30 30 31 31 31 31 32 33 33 34 34 33 33 32 32 33 34 34 33 34 34 33 33 34 34 34 34 35 35 36 36 36 36 35 35 35 36 36 37 36
30 30 30 30 30 31 31 31 31 32 33 34 34 33 34 34 33 33 33 33 34 34 34 34 35 34 35 35 35 34 35 35 36 36 36 36 36 36 36 36 36 36 35 36
30 31 31 31 32 32 32 32 32 33 34 34 34 34 34 34 33 33 33 34 34 34 34 35 35 35 35 35 35 35 35 36 36 36 36 36 36 36 36 36 36 36 35 35
30 31 32 32 32 32 33 33 33 33 33 34 34 34 34 34 33 33 34 34 35 35 35 36 36 36 36 36 36 36 36 36 37 37 38 38 38 37 37 37 36 36 36 36
30 30 31 32 32 32 32 32 33 34 34 34 35 35 35 35 34 34 35 35 35 35 36 36 37 37 37 37 37 37 37 38 38 39 39 38 38 37 37 37 37 37 37 37
30 31 31 31 32 32 33 33 33 34 35 35 36 36 36 35 35 35 36 36 37 37 37 38 38 38 37 37 37 38 38 39 40 40 40 39 39 38 38 38 38 38 38 37
30 30 31 32 32 33 34 34 35 34 35 35 35 36 36 35 35 36 36 37 37 38 38 38 38 38 37 38 38 39 39 40 40 40 40 39 39 39 38 38 38 38 37 37
28 29 30 31 32 33 34 34 34 34 35 35 36 36 37 36 36 36 37 36 36 37 36 37 37 38 38 39 39 39 39 39 40 40 39 38 38 38 38 38 38 37 37 37
28 29 29 30 31 32 32 32 33 34 34 34 35 36 36 36 36 36 36 36 36 36 36 36 37 38 38 39 39 39 39 39 39 39 38 38 38 37 37 37 37 37 37 36
29 29 30 31 32 32 32 32 32 33 33 34 34 35 36 36 35 35 35 36 36 36 37 36 36 37 37 38 38 38 38 38 38 38 38 38 38 37 37 37 36 36 36 36
30 30 31 32 32 32 32 32 32 33 33 34 34 35 35 35 35 35 36 36 36 37 37 37 37 37 37 37 37 37 37 37 36 37 37 37 37 36 36 36 36 36 35 35
31 31 32 32 31 31 31 32 32 32 33 33 34 35 35 36 36 36 36 36 36 36 36 36 36 36 36 36 36 36 35 35 35 34 34 34 34 34 33 33 33 33 32 32
31 31 31 31 31 31 31 31 31 32 33 33 34 34 35 36 36 36 36 35 34 34 35 35 35 35 35 35 35 35 34 34 34 33 32 32 32 32 31 31 31 30 30 30
31 30 30 29 30 31 32 32 32 33 34 34 35 35 36 36 36 36 35 35 35 35 35 35 35 34 34 34 34 34 34 34 33 33 32 32 31 31 31 30 30 30 30 30